ECMWFNIL_sfc_temp_000.txt.gz
Temp
78 79 78 78 78 78 77 77 77 76 76 76 76 75 75 74 73 73 72 72 71 71 70 70 70 69 69 70 70 71 70 68 68 69 68 67 67 65 64 64 64 66
77 77 78 79 78 78 78 78 77 77 76 76 76 77 76 75 73 73 72 71 71 70 70 70 70 70 70 70 69 70 70 68 67 68 66 66 67 65 64 63 64 65
77 77 77 77 77 77 77 77 77 77 77 77 76 76 75 75 73 73 72 72 71 71 70 70 70 70 70 69 69 69 68 68 67 68 67 66 67 66 65 66 65 63
76 76 76 76 77 77 77 76 76 76 76 76 76 76 75 74 74 72 72 71 71 70 70 70 69 70 70 69 69 70 68 69 68 67 67 67 66 66 65 65 64 65
75 76 77 77 77 77 77 76 75 76 76 76 76 75 75 74 73 73 72 71 71 71 70 69 70 69 69 69 69 68 68 68 67 67 67 66 66 65 64 64 63 63
76 78 78 78 77 76 76 76 76 76 76 75 75 75 75 74 74 73 72 71 71 71 70 70 70 69 70 69 69 68 68 68 67 67 67 65 66 66 65 64 63 63
75 75 76 77 77 76 75 76 76 76 77 76 77 75 76 74 74 74 74 72 72 71 71 70 69 69 69 69 69 68 68 67 67 67 66 67 65 63 64 63 64 64
74 75 75 76 75 76 75 76 76 76 76 77 75 75 76 75 75 74 74 73 72 72 71 71 70 70 69 69 68 67 66 66 66 67 66 65 64 64 64 63 62 63
75 75 75 74 74 74 74 76 76 76 77 75 76 76 76 76 76 74 74 74 73 72 72 71 70 69 69 68 68 67 66 65 65 66 65 64 63 63 65 64 63 62
73 74 74 74 73 74 74 75 76 76 76 76 76 76 76 75 76 75 74 73 72 72 71 70 70 69 68 68 68 67 67 66 66 65 65 64 64 64 64 64 63 62
70 70 70 71 72 72 73 74 74 75 75 75 75 75 76 75 75 75 74 73 71 71 71 70 69 69 68 68 67 67 67 66 65 65 64 64 63 63 60 63 62 62
67 69 70 71 71 70 69 71 72 74 75 74 74 74 75 75 74 74 73 74 73 72 71 71 70 69 69 68 68 67 66 65 65 64 64 64 63 63 63 63 62 62
69 70 71 71 72 72 72 73 73 72 73 74 75 74 74 73 74 74 73 74 73 72 71 70 70 69 68 67 67 67 66 65 64 63 63 63 63 63 63 63 62 63
68 68 69 70 71 71 72 73 73 73 74 74 75 74 73 73 73 72 72 73 72 72 71 70 69 68 68 68 68 67 65 64 64 63 63 62 61 62 62 62 62 62
66 67 68 70 70 70 70 71 72 73 73 74 73 73 72 74 74 72 71 71 71 71 71 70 68 67 68 67 66 66 65 64 64 63 62 62 61 62 61 61 62 62
68 68 69 70 70 70 70 70 70 71 71 72 73 74 73 73 74 70 69 68 67 69 69 66 65 67 59 54 57 65 65 64 62 62 62 62 61 61 60 61 61 61
67 68 69 69 70 70 70 69 69 68 68 69 70 71 71 69 67 65 61 61 66 67 66 65 65 61 46 46 47 52 62 63 62 61 62 61 61 60 60 60 61 62
67 67 68 68 69 70 70 70 70 69 68 68 68 68 66 65 65 66 66 65 64 65 64 63 61 47 43 44 45 47 52 62 62 61 60 61 61 60 61 61 60 60
68 68 68 68 68 69 69 69 69 68 67 66 65 65 66 65 65 65 65 66 64 61 58 57 54 43 42 42 43 44 45 53 63 62 61 61 61 60 60 60 60 59
67 68 67 68 68 68 68 67 67 67 67 67 66 65 64 65 65 64 64 63 61 60 58 56 52 43 42 42 42 41 41 46 63 61 60 61 60 60 59 59 59 58
67 67 66 66 67 67 67 67 66 65 65 66 66 65 64 63 63 62 62 61 61 61 60 58 55 41 41 41 41 41 40 43 61 59 59 60 60 60 59 59 59 58
65 65 65 65 66 66 66 66 65 64 64 65 64 65 66 65 62 61 59 60 59 58 57 55 53 40 41 41 40 40 39 55 60 59 59 59 59 59 59 59 60 59
64 64 63 64 65 65 66 65 65 64 64 65 64 64 64 63 60 60 61 60 58 57 56 55 52 43 40 40 40 38 44 59 59 60 60 59 59 59 60 60 59 60
64 64 64 63 64 64 65 65 65 65 64 64 64 64 63 62 61 60 61 59 56 55 54 56 55 46 39 40 40 39 47 58 60 60 59 59 59 60 60 60 59 51
64 63 63 63 63 64 65 65 65 65 65 64 64 64 64 65 60 60 58 56 57 57 52 55 56 49 39 40 39 39 46 57 59 60 58 58 59 59 59 60 60 55
64 63 63 63 63 64 65 65 65 65 65 65 64 64 64 64 60 56 54 56 55 55 53 56 55 53 46 38 40 39 39 53 59 59 57 57 58 58 57 58 59 59

ECMWFNIL_sfc_temp_003.txt.gz
Temp
79 79 78 78 78 78 77 77 77 76 76 77 76 75 75 74 74 74 73 73 72 72 72 72 72 71 72 72 73 73 73 71 71 71 70 69 68 67 67 67 66 66
78 79 79 79 79 79 78 78 77 76 76 76 77 77 76 75 74 74 73 72 72 72 72 72 72 72 72 73 72 72 71 70 70 72 69 69 69 68 67 66 67 67
78 78 78 78 78 78 78 78 78 77 77 77 77 77 76 75 74 74 73 72 72 72 71 72 72 72 72 72 72 72 71 70 69 71 70 69 69 69 68 68 67 67
78 78 78 79 79 79 79 78 78 78 78 76 76 77 77 75 74 74 73 73 72 72 71 71 71 72 73 72 71 72 71 71 71 70 69 69 69 69 68 69 68 68
78 78 79 78 79 80 79 78 77 77 77 77 77 77 76 74 74 74 73 72 72 72 71 71 72 71 71 71 72 71 70 71 70 70 70 69 69 68 68 68 67 66
79 80 80 79 78 77 78 77 78 77 78 77 76 77 76 75 75 74 73 73 73 72 71 71 71 71 71 71 71 70 70 71 70 70 70 69 69 69 70 68 67 66
78 78 78 80 78 76 76 78 78 77 78 78 79 77 77 75 75 75 75 74 74 73 73 72 71 70 71 71 71 70 70 71 70 70 70 69 69 67 68 67 68 68
77 77 76 77 74 74 72 70 72 75 75 77 77 77 77 76 77 76 75 75 75 74 73 73 72 72 72 71 71 70 70 70 69 70 69 70 68 68 68 67 66 67
75 75 75 73 74 74 74 70 67 65 70 72 75 78 77 77 77 76 76 76 75 74 74 74 73 73 71 71 71 70 70 68 69 69 69 67 67 67 69 68 66 66
74 74 73 73 73 74 73 73 73 72 71 69 68 71 75 77 77 78 76 75 75 75 75 74 73 72 72 72 72 71 70 69 69 69 69 68 68 68 69 68 67 66
72 73 72 71 69 71 71 72 73 74 74 75 73 70 69 68 74 78 77 76 74 74 74 74 73 73 72 71 71 71 70 70 69 69 68 68 68 68 65 67 67 65
69 69 69 69 71 71 71 69 69 73 72 70 74 74 71 70 70 74 77 76 76 76 75 75 74 73 72 72 72 71 70 70 69 69 68 69 68 67 67 66 65 66
68 69 67 69 70 70 70 71 71 71 72 74 75 73 74 74 74 72 70 72 76 76 75 75 74 73 72 71 72 71 70 70 68 68 67 67 67 67 67 67 66 66
68 69 70 71 72 72 72 71 70 71 71 71 71 71 70 74 74 73 67 68 71 76 76 75 74 73 72 72 72 71 69 69 68 67 67 66 66 66 66 66 65 65
68 67 66 68 69 69 70 71 72 72 71 67 65 65 67 70 69 73 70 66 71 74 75 74 72 71 71 70 69 69 69 67 67 67 66 65 64 65 65 65 65 65
72 71 71 70 69 69 70 70 70 71 71 72 70 70 70 70 72 71 69 70 71 69 75 70 71 71 65 58 60 69 68 68 66 66 66 65 64 64 63 64 64 64
71 71 71 71 72 71 71 71 71 71 72 72 72 73 72 71 71 71 70 69 70 71 65 69 69 69 51 50 51 55 66 66 65 65 65 65 64 64 62 63 63 65
70 70 70 70 70 71 71 72 71 71 71 71 71 71 71 72 71 71 71 69 69 70 69 67 66 49 45 46 48 49 54 65 64 64 64 64 64 64 64 64 63 63
70 70 70 69 70 70 71 71 71 71 71 71 70 71 70 69 69 69 70 69 67 65 63 64 58 45 45 45 45 46 45 55 65 64 62 59 64 64 64 64 64 63
69 69 69 69 70 70 71 72 71 71 71 71 71 70 69 68 68 66 67 67 66 65 62 58 57 44 44 44 44 44 44 47 62 64 62 64 63 64 63 62 62 62
70 69 69 69 69 70 69 70 70 70 70 70 70 70 69 68 67 66 65 65 65 64 59 55 54 42 42 43 42 43 42 44 62 63 62 62 63 63 63 62 62 61
69 69 68 69 68 69 69 69 69 69 68 69 69 70 70 70 69 68 66 65 63 59 57 54 49 40 41 42 42 42 41 54 59 59 59 61 62 62 62 63 62 61
69 69 68 68 68 68 68 68 68 69 69 70 68 68 68 68 69 68 67 64 62 60 56 53 48 42 41 41 41 40 45 58 60 60 60 60 60 62 62 62 62 62
70 69 68 67 68 67 67 68 68 69 69 70 68 68 67 67 68 67 65 64 61 58 57 53 50 44 40 40 40 40 48 55 57 59 60 61 62 62 62 63 63 56
70 68 68 67 67 67 67 67 67 68 69 69 69 68 68 68 68 65 63 61 61 61 53 53 52 46 39 40 40 39 46 54 54 57 60 60 61 62 63 63 63 57
69 68 68 67 67 67 67 67 68 68 68 68 68 69 69 69 67 64 60 59 59 59 57 56 53 49 44 39 40 39 41 52 55 56 59 60 61 61 60 61 62 62

ECMWFNIL_sfc_temp_006.txt.gz
Temp
72 71 70 70 70 70 70 70 69 69 69 69 67 67 67 67 68 67 67 67 66 66 66 66 66 66 68 67 66 66 65 64 64 64 63 62 61 61 61 61 60 61
71 71 71 71 71 71 70 70 70 69 69 69 69 68 68 68 67 68 67 66 66 66 66 66 66 66 66 66 66 64 64 64 63 67 63 62 62 61 61 61 61 60
72 71 71 70 70 70 70 71 71 70 70 71 70 69 68 68 67 68 67 66 66 66 65 66 66 66 66 66 66 65 64 63 63 65 64 63 63 62 62 62 61 62
72 72 72 72 71 71 71 71 71 70 70 70 70 70 70 69 68 67 67 68 66 65 65 65 65 66 66 66 66 64 64 64 64 64 62 63 63 63 62 62 61 61
72 72 72 72 72 72 71 71 71 71 70 70 70 70 69 68 67 68 67 66 66 66 65 65 65 65 65 64 65 63 64 64 64 64 62 62 63 62 63 62 61 61
73 74 74 74 72 71 71 71 72 71 71 70 69 70 69 69 68 68 68 67 67 66 66 65 65 65 65 64 64 64 63 64 63 64 64 62 62 63 65 63 61 61
72 72 72 72 72 71 70 70 70 71 71 70 71 70 70 69 69 69 69 68 68 67 67 66 65 64 64 64 64 63 63 63 64 64 64 63 62 61 64 63 62 62
72 71 71 70 71 70 70 69 69 68 67 69 70 70 71 71 71 70 69 69 68 69 68 68 67 66 65 64 64 63 62 65 63 63 63 63 61 61 62 63 62 60
71 70 70 70 70 70 69 68 68 68 69 67 68 69 70 70 71 70 70 70 69 69 69 68 67 67 65 64 64 64 64 63 63 62 62 61 61 61 63 62 61 60
71 71 71 70 69 69 69 68 68 68 69 68 69 68 69 70 70 71 70 69 69 69 69 68 68 67 66 66 66 65 64 64 63 62 62 62 62 62 63 62 60 59
66 67 69 69 69 69 66 64 64 63 64 66 68 68 69 69 69 70 69 70 68 69 69 69 68 68 67 66 65 65 65 64 63 63 62 62 62 62 62 61 60 59
67 67 67 66 66 64 62 61 60 60 59 62 64 64 62 67 67 67 69 69 70 70 70 70 70 69 69 67 67 66 64 64 63 63 62 62 62 62 62 62 61 60
64 65 65 65 63 62 62 62 63 61 62 61 62 63 63 62 64 66 67 68 69 69 70 69 69 70 68 67 67 67 65 65 63 62 62 61 62 62 62 61 60 61
64 65 66 66 65 63 61 61 60 60 60 60 60 60 62 63 63 64 65 66 66 67 67 67 66 66 67 68 68 67 65 64 63 62 62 61 61 61 61 60 60 60
65 66 65 66 67 67 66 65 63 63 62 61 60 61 60 60 59 60 62 66 67 67 66 66 65 65 66 66 67 66 65 64 63 63 61 61 60 60 59 60 59 59
68 67 67 66 65 65 65 65 66 64 64 63 64 64 65 64 64 64 64 65 65 64 64 64 61 61 60 55 58 67 65 64 62 61 61 60 59 58 58 58 59 58
67 67 67 68 67 67 66 67 68 67 66 66 66 65 65 65 65 66 65 65 65 64 64 64 62 62 53 51 50 55 63 61 60 60 60 60 58 57 56 57 58 59
67 67 67 66 67 67 67 67 68 67 67 66 66 66 66 66 65 65 65 65 65 65 65 63 62 56 51 49 48 50 55 62 61 59 59 58 59 58 58 58 58 58
67 67 67 66 66 66 65 65 66 66 66 65 65 66 66 66 66 65 64 64 64 64 61 58 56 46 47 46 46 48 51 57 61 58 57 57 58 59 57 57 57 57
66 66 66 66 66 66 65 66 65 64 65 66 66 65 65 64 64 64 64 62 63 62 58 55 53 45 45 46 46 46 48 53 59 58 58 58 59 59 58 57 57 56
67 66 65 65 65 65 64 63 63 63 64 65 65 64 63 62 62 62 62 62 63 59 54 54 52 43 43 44 44 44 46 50 57 58 58 57 58 59 59 58 56 57
67 65 65 65 65 65 64 63 63 62 62 64 63 64 63 64 63 63 62 62 61 56 55 52 49 41 42 43 42 43 45 54 56 56 55 55 54 55 55 54 55 54
67 66 65 64 64 64 63 63 62 62 62 64 63 63 62 62 62 63 63 61 57 56 54 51 47 42 40 41 41 44 47 53 54 55 54 54 54 55 56 56 57 56
66 66 65 64 64 63 63 63 63 62 62 63 62 62 61 61 62 62 63 61 56 55 54 50 48 42 40 40 41 45 49 53 53 54 54 54 55 56 55 56 58 57
67 66 65 64 63 63 63 63 62 62 62 63 63 63 62 62 62 61 60 58 56 54 51 51 48 43 40 40 41 42 48 51 50 51 52 53 54 55 56 56 56 55
66 65 63 63 63 63 63 62 63 62 61 62 62 63 62 62 63 61 58 56 54 52 52 51 47 45 43 39 40 40 42 48 51 50 50 52 54 56 55 57 57 51

ECMWFNIL_sfc_temp_009.txt.gz
Temp
64 65 64 64 63 63 62 62 61 61 60 60 59 59 59 59 58 57 58 59 57 57 58 57 58 58 60 58 58 60 58 56 56 55 55 55 53 54 56 54 53 52
64 65 65 64 63 63 63 63 63 62 61 61 61 60 60 60 58 59 58 58 58 57 57 58 58 57 58 59 58 58 57 57 56 60 56 55 54 53 53 54 54 53
64 64 64 63 63 63 63 63 64 63 63 62 61 62 61 61 59 59 59 58 57 57 57 57 59 58 57 57 57 57 56 55 56 56 55 55 54 53 54 54 54 53
63 64 64 64 64 64 63 63 63 63 63 61 62 63 63 62 61 60 60 61 57 57 57 58 58 57 57 57 57 57 56 55 56 56 55 55 55 53 54 53 53 53
64 63 64 64 64 65 63 64 63 62 63 63 62 62 62 61 60 60 60 58 58 57 57 57 58 57 57 56 56 56 56 56 56 56 55 55 56 55 56 55 55 55
64 65 65 65 64 64 63 64 64 63 63 63 63 63 62 62 61 61 60 59 58 58 58 57 57 57 56 57 55 56 55 57 56 56 56 55 56 56 59 54 55 56
65 64 63 63 63 65 63 63 64 64 63 63 63 62 62 61 62 61 61 60 59 59 59 56 56 56 56 56 55 56 55 55 56 56 55 54 55 56 58 55 56 56
63 62 63 63 62 63 62 61 60 60 60 61 60 60 63 62 62 62 61 61 60 60 59 58 58 56 56 56 55 56 55 57 57 56 54 55 54 54 55 57 54 54
64 63 63 62 62 61 60 60 60 60 61 60 61 61 61 61 62 62 62 62 61 60 60 60 59 58 57 57 56 56 57 55 57 55 54 54 54 55 55 55 56 56
63 62 63 62 61 60 60 58 57 57 60 60 60 59 61 61 61 61 62 62 61 60 60 61 60 59 59 59 59 57 57 56 56 56 55 54 55 55 55 55 54 53
61 62 61 60 59 58 57 58 58 57 58 59 59 59 61 60 62 62 60 60 60 60 61 61 61 61 60 60 59 58 58 57 57 57 56 54 55 56 56 55 54 54
60 60 60 60 59 58 57 57 57 57 57 58 59 59 57 59 59 60 60 60 60 60 61 61 62 61 61 61 61 60 58 58 58 57 57 55 55 56 55 54 55 54
57 57 57 57 58 58 58 59 58 58 58 58 59 59 58 58 58 58 58 59 60 61 61 62 62 62 61 61 61 61 59 58 58 57 57 56 56 56 55 55 54 53
56 57 58 57 57 57 57 57 58 58 58 57 57 57 57 57 57 58 58 59 59 60 60 61 61 61 62 62 62 61 59 58 58 57 57 56 55 55 54 54 54 54
56 57 57 57 57 56 56 56 56 56 57 57 57 56 57 57 57 58 58 58 59 59 60 61 61 61 62 62 61 61 60 59 58 57 57 56 54 54 53 53 53 53
56 56 56 56 56 55 55 55 55 54 55 56 57 57 56 56 55 55 55 57 58 58 59 60 60 61 60 55 56 61 59 60 58 57 56 55 55 53 52 53 53 52
55 56 56 56 56 55 55 58 58 58 57 57 57 57 58 57 56 56 56 57 58 59 59 59 60 60 54 50 49 53 59 59 58 56 56 55 54 54 53 53 52 53
55 55 54 55 55 56 56 57 57 57 56 57 57 58 58 57 57 56 56 56 57 57 57 58 59 55 50 48 47 46 51 58 58 57 56 55 55 55 54 54 55 55
54 54 54 55 55 54 54 56 56 55 56 55 56 59 58 57 58 57 57 56 56 55 54 53 57 53 48 47 46 45 46 53 57 57 56 55 56 56 55 55 55 54
54 52 53 53 54 54 56 56 57 58 57 56 56 56 56 57 57 57 56 54 51 49 48 47 46 42 44 45 45 44 45 51 55 55 54 54 55 55 55 56 54 53
54 53 52 53 53 53 54 55 55 53 53 54 56 56 56 54 56 56 55 54 51 48 45 44 44 41 41 42 43 44 46 48 54 53 54 53 52 52 54 53 51 51
54 52 52 52 53 52 52 53 52 51 54 52 53 53 54 54 53 54 52 52 50 48 46 42 41 41 41 43 44 45 47 51 51 50 50 50 48 51 51 50 51 51
54 54 52 51 51 51 51 51 51 53 52 51 54 51 53 54 52 51 51 50 48 47 45 42 40 41 41 43 43 44 46 50 50 48 49 49 50 50 50 51 52 53
54 53 52 52 50 52 51 50 51 52 52 50 54 51 51 49 51 51 48 50 48 46 45 43 40 40 41 42 43 43 46 48 47 48 47 47 48 51 52 51 53 55
53 52 51 51 52 52 51 52 52 52 50 50 50 50 49 48 49 49 47 46 46 46 48 44 41 41 41 41 42 43 46 46 46 46 45 46 48 50 51 52 49 43
54 51 51 53 52 50 49 50 49 52 52 51 49 49 51 49 48 48 46 44 44 45 46 44 42 39 40 41 42 42 44 46 45 45 45 46 49 50 50 49 44 43

ECMWFNIL_sfc_temp_012.txt.gz
Temp
62 62 62 61 60 60 59 58 57 57 56 55 56 55 56 57 54 55 54 54 54 54 54 54 54 55 57 54 54 55 54 53 53 52 53 53 51 52 54 52 50 50
61 61 62 61 60 60 59 59 58 58 57 56 57 56 57 55 55 56 55 55 54 53 53 54 53 54 54 55 54 54 53 53 53 56 54 52 50 52 52 50 49 49
63 62 61 61 61 60 60 60 59 58 58 58 58 58 58 57 56 55 55 55 55 54 54 53 53 54 54 53 54 55 54 52 53 52 54 52 51 52 50 50 49 49
62 63 62 62 62 61 60 60 59 58 56 57 57 59 59 58 57 56 56 58 55 54 53 53 53 53 53 53 53 53 52 53 53 52 52 51 52 52 52 52 51 50
62 62 63 63 63 63 61 61 60 58 58 59 58 58 58 57 56 56 56 54 54 53 53 53 52 53 52 52 53 52 52 53 52 52 52 52 52 54 52 53 52 51
62 63 64 64 64 63 61 61 61 60 60 58 58 59 59 59 58 57 57 56 55 55 54 53 53 53 52 53 52 53 53 53 52 52 52 51 52 52 55 51 50 51
61 61 63 64 64 63 63 62 62 61 61 61 60 59 59 59 59 58 58 57 56 56 56 54 54 53 52 52 53 51 51 52 51 52 52 51 52 53 53 51 52 51
60 60 63 64 63 62 63 62 61 61 61 60 60 60 59 59 59 59 58 58 58 57 56 56 55 54 52 53 53 52 51 54 53 51 51 51 51 52 52 53 49 50
58 59 61 62 62 60 61 60 59 60 60 60 60 59 59 60 60 59 59 59 58 58 57 56 56 55 54 54 54 54 53 52 53 51 51 51 50 51 51 50 50 50
58 57 58 59 60 59 59 58 59 59 60 60 60 59 60 59 58 59 59 58 58 58 58 58 57 56 55 55 56 54 54 54 52 51 51 51 52 51 50 51 51 50
56 57 57 57 57 57 57 57 58 58 58 60 58 58 59 58 58 57 58 58 58 58 58 57 58 58 57 56 56 55 56 55 54 53 53 52 52 52 54 52 51 51
55 56 57 57 57 57 56 56 56 56 58 57 59 59 58 58 59 59 59 58 58 58 58 58 58 58 58 58 58 56 56 55 55 55 54 54 52 52 53 52 52 51
55 55 56 56 57 57 56 57 57 56 57 57 57 58 57 57 57 58 58 58 59 59 59 59 59 59 58 58 58 57 56 56 55 54 54 54 53 53 53 52 52 52
54 54 55 56 56 56 57 57 56 56 55 55 56 56 56 57 57 58 57 57 58 57 57 57 58 59 59 59 59 58 57 56 55 55 55 54 53 53 53 52 52 52
55 55 55 55 56 56 56 56 56 57 56 55 55 56 55 56 56 56 55 56 55 55 56 55 56 57 59 59 58 58 57 56 56 55 55 55 53 52 52 52 52 52
55 55 55 55 54 54 55 55 56 56 55 55 56 56 55 53 53 53 53 53 54 54 55 55 54 56 56 53 54 57 57 58 57 56 56 56 55 53 51 51 52 52
52 53 54 54 53 53 52 53 54 55 54 55 54 53 53 52 52 53 51 52 53 51 52 54 56 58 52 48 47 50 58 58 57 57 56 56 55 54 53 52 51 51
53 53 53 53 52 52 52 53 53 53 53 52 51 51 52 51 52 52 52 51 51 51 51 53 53 53 49 47 46 46 51 58 57 57 56 56 56 56 56 54 52 50
49 50 50 49 50 51 50 51 51 52 52 52 51 52 51 51 52 51 52 52 51 51 51 51 52 45 45 46 45 44 44 51 57 56 55 55 55 56 56 53 51 50
48 49 49 49 49 49 49 49 51 51 50 49 50 50 51 52 51 51 51 51 50 50 49 45 44 42 45 44 45 43 42 44 53 54 54 53 53 51 51 51 51 52
48 48 49 48 47 47 47 48 48 48 49 47 49 50 51 52 52 51 51 50 47 45 44 42 43 40 42 45 44 43 41 42 49 48 49 49 49 50 51 51 51 52
48 47 48 47 47 47 49 51 47 46 50 48 48 47 48 46 48 48 48 46 46 44 41 40 39 40 40 41 41 42 44 48 47 47 47 47 47 48 49 49 50 49
48 49 48 47 47 49 49 49 49 50 48 46 50 45 45 47 48 47 46 47 45 42 40 38 39 41 41 41 42 43 44 46 46 45 46 46 47 48 49 49 48 49
49 49 49 48 46 49 47 45 43 44 45 46 52 49 48 46 47 43 45 45 45 42 41 40 39 42 42 41 43 44 45 46 45 45 44 45 44 44 45 45 46 52
48 49 49 48 48 47 46 45 46 46 47 45 45 46 47 43 43 43 43 42 43 42 46 42 39 42 42 41 42 43 45 45 46 47 46 43 44 43 43 42 42 43
45 47 46 47 48 45 44 46 45 46 47 48 45 43 43 41 42 41 41 40 41 41 42 40 40 39 40 41 42 42 43 45 45 44 43 41 42 43 40 39 40 40

ECMWFNIL_sfc_temp_015.txt.gz
Temp
60 60 59 59 58 58 56 54 52 53 52 51 52 51 51 52 52 51 51 51 51 52 51 51 52 52 54 52 52 53 52 51 51 50 50 50 49 50 51 49 48 49
60 60 60 60 59 58 56 55 55 54 53 51 52 52 52 52 52 52 52 52 52 51 51 52 52 52 52 52 51 51 50 51 51 52 51 50 48 49 49 48 48 47
60 60 59 59 59 58 57 56 55 55 54 53 53 53 53 53 52 52 52 52 52 51 51 51 52 52 52 51 51 52 51 50 51 49 52 50 49 50 47 48 47 48
60 60 60 60 59 59 57 56 54 54 53 55 53 53 54 55 53 52 52 56 52 51 51 51 52 51 51 51 51 51 50 51 50 49 50 49 49 49 48 49 49 49
61 60 59 59 59 59 57 57 56 55 54 55 53 53 54 53 52 52 52 52 52 51 51 51 51 51 51 50 51 51 50 50 49 49 49 49 49 50 50 50 48 49
59 60 60 60 59 59 58 58 58 57 56 55 55 54 53 53 52 53 53 52 53 53 52 52 52 51 51 51 51 52 51 51 48 49 50 49 50 50 51 49 48 48
59 59 59 60 60 60 59 59 58 58 57 57 55 55 54 54 53 54 53 53 53 53 54 53 53 52 51 51 51 50 51 51 48 49 50 48 49 50 50 48 48 48
59 59 59 60 60 59 59 59 57 57 57 55 55 56 55 56 55 54 53 53 52 52 52 52 53 53 51 52 52 51 50 52 51 50 50 48 48 49 49 49 47 47
56 56 57 58 58 57 57 57 57 57 58 58 57 56 55 56 56 55 54 53 52 53 52 52 53 53 52 52 52 53 52 51 51 51 51 50 49 49 48 47 47 47
56 55 55 56 56 55 55 55 57 57 58 58 59 57 57 56 55 55 55 54 54 53 52 52 53 53 53 53 54 53 53 52 51 51 51 51 52 50 48 48 49 48
54 55 55 55 55 55 55 55 55 55 55 57 56 56 55 55 55 55 54 54 55 54 54 53 53 54 54 53 53 53 53 53 52 52 51 52 52 52 52 51 50 51
53 54 55 55 55 55 56 55 55 55 55 55 56 56 56 55 55 56 56 56 56 56 55 54 54 53 53 53 53 52 52 52 52 52 52 52 52 51 52 51 52 51
53 54 54 55 55 55 56 56 56 55 56 56 55 56 57 56 57 57 56 56 57 57 57 56 55 54 54 53 54 53 52 52 52 52 52 52 52 52 51 51 51 51
53 54 55 55 56 56 55 55 55 55 55 55 55 55 56 56 56 57 57 56 57 56 56 56 56 54 53 53 53 54 52 51 51 51 51 51 52 51 50 51 51 51
54 54 54 55 56 56 56 56 56 55 55 55 55 55 56 56 56 56 55 55 55 54 55 55 55 56 57 56 55 54 53 52 52 52 52 52 51 51 50 50 49 50
53 53 54 54 54 55 56 56 56 56 56 56 56 56 55 55 55 54 54 53 53 54 54 54 54 55 55 53 53 56 54 55 53 53 52 52 52 52 51 50 51 51
51 51 52 53 55 55 55 56 55 55 55 55 55 55 55 54 54 53 53 52 53 53 54 54 55 55 51 47 46 48 54 53 53 54 53 53 53 53 52 52 52 51
50 50 51 52 53 53 53 53 52 52 53 53 53 53 53 53 52 53 53 53 52 52 53 54 53 51 47 46 45 44 47 53 53 53 53 52 52 52 53 53 52 50
49 50 51 51 52 52 51 51 51 52 52 52 52 54 52 52 53 52 52 51 51 52 52 51 52 46 42 44 44 43 43 46 52 52 52 52 51 52 51 50 49 49
47 48 48 49 49 48 49 50 50 51 51 52 51 50 51 51 51 51 50 50 51 51 50 44 43 43 41 42 43 43 41 43 48 49 50 50 50 50 51 49 49 50
47 46 46 45 45 46 46 47 47 46 46 47 48 49 50 49 49 49 50 50 49 47 44 41 41 41 39 42 43 42 41 42 47 46 45 45 46 47 47 48 49 50
45 44 45 44 45 44 45 44 43 45 47 45 43 42 43 43 43 44 45 44 43 41 42 43 40 40 40 41 41 39 41 45 43 43 43 43 43 43 44 45 46 47
45 46 46 44 44 46 44 44 46 46 44 42 42 41 43 44 45 43 43 43 42 41 40 40 39 41 40 40 40 41 43 43 43 44 43 43 42 42 43 44 44 45
45 46 49 48 45 47 45 44 42 42 42 44 45 44 44 42 42 40 42 41 43 42 40 39 39 41 41 40 41 42 43 43 42 44 42 42 40 39 39 40 45 49
47 48 48 49 50 47 44 43 43 45 43 40 41 42 41 39 40 40 40 39 39 39 47 38 38 40 41 40 41 42 44 43 44 43 43 39 39 38 38 38 40 43
45 48 48 48 50 48 45 45 44 42 42 41 39 41 41 38 39 39 38 37 36 37 38 37 37 37 39 41 41 42 43 44 44 44 41 38 38 40 38 37 38 39

ECMWFNIL_sfc_temp_018.txt.gz
Temp
57 58 57 57 56 57 56 55 53 52 51 50 53 51 51 53 52 51 51 51 52 52 52 52 53 53 54 53 53 54 53 52 51 51 52 52 51 52 52 52 52 52
58 58 58 58 57 57 56 56 54 54 51 50 51 51 51 51 51 51 52 52 53 51 51 52 52 52 52 52 52 52 52 52 52 54 52 52 51 51 51 51 51 50
57 58 57 57 56 56 55 55 54 53 52 51 51 51 52 52 51 51 51 52 52 51 51 51 51 52 51 51 52 53 52 51 51 52 53 51 51 51 50 50 51 52
58 58 58 57 57 56 56 55 53 53 52 52 52 52 53 54 52 51 52 55 51 51 51 51 51 51 51 51 51 51 51 51 51 51 52 51 51 51 50 51 52 52
58 58 58 57 57 57 56 55 54 53 53 53 52 53 55 53 52 53 52 51 51 51 51 52 51 51 51 51 51 51 52 51 51 52 52 51 51 52 52 53 52 52
58 58 58 58 58 57 56 56 55 54 54 53 53 54 52 52 52 53 53 52 51 52 52 52 52 51 51 51 51 52 52 52 51 52 53 53 52 52 53 52 52 52
57 57 57 59 57 57 58 58 57 56 55 55 54 54 54 53 53 53 53 52 52 53 53 52 52 52 51 51 52 51 52 51 50 52 53 51 52 51 51 52 52 52
57 57 58 58 57 57 56 56 56 55 54 54 54 54 55 55 53 52 52 52 53 52 52 52 52 52 51 51 52 51 51 52 51 51 52 51 51 52 51 52 51 52
57 57 57 57 56 55 56 56 55 54 55 54 54 53 53 54 53 53 53 52 52 52 52 52 51 51 50 51 51 51 52 52 52 51 51 51 52 52 52 50 51 52
55 55 56 56 55 54 55 55 56 55 56 55 54 53 53 54 54 54 53 52 52 53 52 52 52 52 52 52 53 53 52 52 51 51 52 52 53 52 51 52 52 51
54 55 55 55 54 54 55 55 55 55 56 56 54 54 54 54 54 54 53 53 53 53 54 53 53 53 53 53 53 53 53 53 52 52 52 52 52 52 52 52 52 54
54 54 54 54 54 54 54 54 55 55 55 55 56 55 55 55 55 55 56 56 56 56 55 55 54 54 54 54 54 54 53 53 53 53 53 53 53 52 53 53 53 53
53 54 54 54 54 54 54 55 55 55 56 55 56 56 56 55 55 56 55 56 58 56 55 55 55 54 54 54 54 54 54 54 53 53 53 53 53 53 53 53 53 53
53 54 54 54 54 55 55 55 55 55 56 56 56 55 56 56 56 56 56 56 56 56 56 55 56 56 55 55 55 54 53 53 53 53 53 53 53 53 54 53 53 54
53 54 55 55 55 55 55 55 55 56 56 56 56 56 56 56 56 56 55 55 55 54 54 54 54 56 56 55 55 55 53 53 54 54 53 53 53 53 53 53 53 53
53 54 54 54 54 55 56 56 55 55 56 56 56 56 56 55 55 55 55 54 53 53 54 55 55 55 54 51 52 55 55 54 54 53 53 54 54 53 52 52 53 54
52 52 52 53 53 54 53 54 54 54 54 55 55 56 55 55 54 54 53 53 54 54 54 55 55 55 50 46 45 47 54 55 55 54 54 53 53 53 54 54 54 54
50 50 51 51 51 52 53 52 52 52 52 52 52 52 52 53 53 53 53 53 53 54 53 54 54 51 46 45 44 44 46 53 54 54 54 53 54 54 54 54 54 54
48 50 51 51 51 51 50 50 50 51 50 50 51 52 51 52 53 53 53 53 53 53 52 52 53 48 44 43 42 41 41 45 52 53 53 53 53 53 53 53 53 52
48 49 49 49 48 48 48 49 49 49 49 50 51 51 51 51 51 51 51 52 52 52 52 51 50 46 42 42 42 41 40 42 49 49 50 51 51 51 52 52 51 52
46 47 48 48 47 47 47 48 48 47 48 49 50 51 51 51 51 50 51 50 50 49 50 49 47 44 42 40 40 40 39 40 47 47 47 46 46 48 50 50 50 50
45 44 45 45 45 45 45 45 44 45 46 45 47 46 46 46 46 47 48 48 48 48 47 47 44 41 40 40 41 39 41 45 45 45 45 44 44 44 45 46 47 48
45 45 44 43 44 45 44 43 44 44 43 43 44 44 44 45 45 45 45 46 45 45 46 45 43 42 40 40 39 40 43 45 45 45 44 43 41 42 43 46 46 47
44 45 45 45 45 47 46 45 44 44 45 44 47 45 46 45 43 42 42 43 43 41 42 43 42 42 41 40 40 41 43 45 45 44 41 41 41 40 42 44 47 47
46 47 49 47 47 49 48 47 46 47 44 42 43 45 44 41 43 43 40 39 41 42 46 41 40 42 41 40 40 41 44 45 45 44 42 40 41 41 41 42 43 45
46 48 48 49 49 47 45 45 44 44 43 43 41 43 42 41 42 41 40 38 38 39 40 39 40 41 41 40 40 41 42 46 45 45 42 40 41 42 41 41 41 42

ECMWFNIL_sfc_temp_021.txt.gz
Temp
66 67 66 66 66 65 64 65 66 67 67 68 68 67 67 66 65 66 65 66 66 66 65 65 65 65 65 66 66 68 68 65 66 66 66 66 66 65 65 66 66 67
64 65 65 65 63 64 64 66 66 67 66 66 67 66 66 66 65 66 65 66 66 65 65 65 65 65 66 67 66 67 66 66 64 66 65 65 65 65 64 64 65 66
62 62 63 64 64 64 64 65 65 65 66 66 66 67 66 66 65 66 66 66 67 65 65 65 65 65 65 65 65 66 66 65 65 66 66 66 66 66 64 65 66 66
61 62 64 64 65 64 65 65 64 64 64 65 67 67 67 66 66 66 66 66 66 66 65 65 65 65 66 65 65 66 65 65 65 66 65 65 66 66 65 66 66 66
62 63 64 64 64 64 64 64 63 63 64 67 66 67 67 66 66 67 66 66 66 66 66 65 65 65 65 66 66 66 66 65 65 67 66 65 65 65 65 66 65 65
63 65 65 65 64 64 64 65 65 64 65 64 65 66 67 67 68 67 67 66 66 66 66 66 66 65 66 66 66 66 66 67 65 66 67 66 66 66 67 66 66 66
63 64 64 65 64 64 65 65 65 65 65 66 65 65 66 67 68 68 68 67 67 67 67 66 65 64 65 66 66 66 66 65 66 67 67 67 66 65 66 67 68 67
65 65 65 66 65 64 64 64 64 64 64 65 65 65 66 66 67 66 66 67 67 67 67 67 66 66 65 66 66 65 64 64 65 67 67 66 66 67 66 66 66 67
66 65 66 65 65 65 63 64 64 63 64 64 64 64 64 65 65 66 66 68 68 67 68 67 67 66 65 66 65 65 66 65 65 66 66 65 66 66 68 67 66 66
65 65 65 65 65 65 64 64 64 64 65 65 65 65 65 65 66 67 67 67 67 67 67 67 67 66 66 67 66 66 66 65 65 64 65 66 67 67 68 67 67 66
64 65 65 65 65 65 65 65 65 65 65 66 65 66 66 66 66 67 67 68 66 68 68 67 67 67 67 66 66 66 66 65 66 65 64 65 65 66 64 67 66 66
64 64 65 65 65 65 65 65 66 66 66 66 67 66 65 66 66 67 68 68 69 68 68 67 67 67 67 67 67 66 66 66 66 66 66 66 65 65 65 65 64 66
64 64 65 66 65 65 65 66 66 66 66 65 66 66 66 66 67 68 68 68 68 67 67 66 66 66 66 66 67 67 67 66 65 65 65 65 65 65 64 64 63 63
64 64 65 66 66 66 66 67 67 66 67 66 67 66 67 67 67 66 65 66 66 66 66 66 66 66 67 67 67 66 66 65 65 65 65 65 64 65 64 64 63 63
63 64 65 66 65 65 65 66 66 66 67 67 66 66 65 65 64 63 62 63 63 62 62 62 61 61 62 64 66 66 65 64 65 65 65 65 65 65 64 64 65 64
64 64 65 65 65 65 65 65 65 65 65 66 66 66 63 62 62 60 60 62 61 60 60 59 59 60 57 53 55 64 65 65 64 65 65 65 65 65 65 64 64 65
63 64 64 65 65 65 65 65 65 64 63 64 64 64 63 61 61 61 61 61 62 62 61 60 59 59 50 47 45 46 60 65 63 64 65 64 64 64 65 66 65 66
63 63 63 63 63 64 63 64 63 63 62 63 63 63 63 63 62 63 62 61 60 60 59 58 57 53 47 46 44 44 47 60 63 63 63 64 65 65 66 66 66 65
63 63 63 63 63 63 63 64 63 63 64 63 62 63 63 62 63 62 61 60 59 59 59 59 60 48 44 44 43 42 41 48 62 63 63 63 64 64 64 64 65 64
63 63 63 62 62 62 62 63 63 63 63 64 63 62 62 62 62 61 62 61 61 61 60 60 61 48 43 42 42 41 40 42 59 61 63 63 63 63 63 63 63 63
62 62 62 63 62 61 60 60 60 62 62 62 63 62 62 62 62 62 62 62 62 62 61 60 57 42 42 42 41 39 39 42 59 59 60 61 59 59 60 61 61 61
61 61 61 61 61 61 60 60 59 59 60 61 61 63 63 63 62 63 62 61 61 60 60 58 55 40 41 40 39 38 39 57 60 60 59 59 58 58 59 60 61 61
58 60 61 61 60 60 61 61 59 58 59 61 61 61 61 61 61 60 61 60 59 59 59 58 56 44 40 39 39 39 49 61 59 60 58 56 56 57 59 59 59 60
60 57 57 56 57 59 61 61 61 61 61 60 61 61 61 61 57 54 55 57 56 57 59 57 56 45 39 40 40 42 52 60 60 59 56 56 55 55 57 57 53 48
61 61 60 59 57 57 58 60 61 61 61 59 61 62 59 58 58 59 58 58 58 58 52 59 59 49 39 40 40 40 53 61 61 60 57 56 56 55 56 57 55 49
61 60 59 59 59 58 57 58 59 60 59 59 59 60 58 58 58 59 57 56 55 57 56 58 58 56 48 38 40 41 46 62 62 60 58 56 58 57 56 56 55 54

ECMWFNIL_sfc_temp_027.txt.gz
Temp
78 78 77 77 77 77 77 77 77 76 77 77 76 76 75 75 75 75 75 76 76 75 75 74 75 75 76 76 76 77 76 74 75 75 74 73 73 73 73 74 74 75
77 78 78 78 78 77 77 77 77 77 76 77 77 76 75 75 75 75 74 74 75 74 75 75 75 76 76 76 76 75 75 74 74 76 74 74 74 74 73 73 75 76
77 76 77 77 76 76 76 76 76 76 76 76 76 75 74 75 74 75 75 75 74 74 74 74 74 75 75 75 76 75 74 74 73 75 74 74 74 74 74 74 74 75
73 76 77 77 76 75 76 76 76 76 76 75 75 75 75 75 75 74 74 75 74 74 74 74 75 75 76 76 75 75 75 74 74 74 74 74 74 75 74 75 75 76
70 76 76 76 76 76 76 76 75 75 75 75 75 75 75 74 74 75 74 74 74 74 74 74 74 74 75 75 75 74 74 74 74 75 74 73 74 74 74 74 73 73
65 74 76 75 75 75 75 76 76 75 75 74 74 76 76 76 76 75 75 74 75 75 74 75 75 75 75 75 75 74 75 75 74 74 74 74 74 75 76 74 74 74
64 70 74 76 75 75 75 75 76 76 75 75 76 75 76 76 76 76 77 76 76 76 76 75 74 74 75 75 75 74 75 74 75 76 75 75 74 74 76 76 76 74
68 73 75 76 75 75 75 75 76 75 75 76 75 76 76 77 77 77 77 77 77 77 76 76 76 76 75 75 75 73 73 74 75 76 75 74 74 75 74 75 74 74
73 75 75 74 74 74 75 75 75 75 76 75 75 76 77 77 77 77 77 78 77 76 77 76 76 76 75 75 73 73 74 74 74 74 73 72 73 73 75 75 74 73
72 74 74 74 73 74 74 75 75 75 76 75 76 76 77 77 77 78 77 77 76 77 77 76 76 75 75 76 75 75 74 73 74 74 74 74 74 75 76 74 73 72
72 73 73 73 73 74 73 74 75 75 76 76 75 75 76 76 77 78 77 77 75 77 76 76 76 76 76 76 75 75 75 74 74 74 74 74 74 75 72 75 73 73
72 72 72 73 73 73 71 72 74 75 75 76 77 75 75 75 76 77 77 78 78 78 78 77 77 77 76 76 76 75 75 75 74 74 74 75 74 74 74 74 73 74
72 72 72 73 73 73 74 74 73 74 75 76 76 76 75 75 76 76 76 78 78 78 78 77 77 77 76 76 76 76 75 74 74 73 74 74 74 75 75 74 74 74
72 72 73 72 73 73 73 73 73 74 75 76 76 75 75 76 75 75 76 77 78 78 78 78 77 77 77 77 77 76 74 74 73 72 73 73 73 74 74 74 74 74
72 72 73 73 73 73 71 72 72 74 74 75 75 75 74 75 76 76 75 76 77 77 78 77 76 75 77 75 75 75 75 73 73 73 73 72 72 73 74 74 74 74
72 72 72 72 72 71 69 70 73 74 73 74 74 75 75 75 75 76 76 75 75 76 76 74 74 76 69 62 65 74 74 73 72 72 73 73 72 71 70 72 73 72
73 73 73 72 71 71 71 71 69 71 72 74 74 74 74 74 74 75 75 75 76 75 74 74 73 73 49 51 51 58 70 72 72 71 71 71 71 71 71 68 66 67
73 72 73 72 72 72 72 73 72 72 72 71 71 70 69 69 68 72 74 74 73 74 72 72 73 54 46 48 51 52 57 69 71 71 71 71 71 71 69 69 63 62
75 74 73 72 72 72 72 72 72 72 71 70 68 70 67 66 69 66 67 70 71 71 70 70 73 48 47 45 47 47 47 55 72 71 69 70 70 69 69 68 65 62
75 74 74 74 73 72 72 72 71 71 71 70 70 66 67 65 64 66 68 67 67 70 69 68 67 49 46 44 45 44 44 49 71 70 69 70 70 69 67 66 64 64
74 74 74 73 74 73 72 72 70 71 70 70 70 69 66 66 65 62 66 66 67 65 62 59 61 44 45 44 44 43 42 45 68 68 68 68 68 68 66 64 64 63
73 73 72 73 73 73 73 72 72 71 70 69 70 70 70 69 68 66 63 62 64 64 62 60 61 45 43 44 42 42 40 58 67 68 67 66 65 67 67 66 66 65
72 72 71 72 72 72 72 72 72 72 71 72 70 70 69 68 67 66 65 64 64 63 62 62 63 49 43 43 42 40 46 64 67 67 66 63 64 65 64 63 59 59
71 72 71 70 71 71 71 71 72 72 73 73 71 70 70 70 70 70 70 70 68 64 63 60 61 50 41 42 41 40 50 65 67 65 65 64 63 65 66 61 55 46
70 70 70 70 70 70 70 70 70 71 72 73 72 72 70 72 72 71 70 70 69 66 60 59 62 51 40 41 40 40 50 64 66 65 62 62 64 64 65 64 62 54
69 69 69 69 69 69 70 69 70 71 71 71 71 73 73 73 72 71 70 69 69 67 64 63 61 58 48 40 42 41 44 62 65 63 60 61 62 64 64 64 63 60

ECMWFNIL_sfc_temp_030.txt.gz
Temp
71 71 71 71 71 73 72 72 72 72 71 72 70 70 69 69 70 70 70 70 70 69 69 69 70 71 72 70 69 70 70 68 69 69 68 67 67 68 68 69 68 68
71 71 72 72 71 72 71 72 71 71 71 71 70 69 69 69 70 70 69 69 69 69 69 70 70 71 70 69 68 68 68 68 68 72 68 68 67 67 67 68 67 67
70 70 71 71 70 71 71 71 71 71 71 70 69 69 69 70 69 69 69 68 68 68 68 69 68 69 69 69 68 68 68 67 66 67 67 67 66 66 66 67 66 67
68 68 70 71 71 70 71 71 71 71 70 70 69 69 70 70 68 68 68 69 67 67 67 69 69 69 69 69 68 67 67 67 67 66 66 66 66 66 66 66 67 68
66 67 69 71 71 70 70 70 69 70 70 69 69 69 69 68 68 68 67 67 67 67 67 67 68 68 69 67 67 66 66 66 67 66 65 65 66 66 67 67 66 66
67 68 70 71 70 69 70 70 70 70 70 69 69 70 68 69 69 69 68 67 68 67 67 67 68 69 67 68 67 66 66 67 66 67 67 66 67 68 71 68 66 66
66 67 69 70 70 71 70 70 69 69 69 69 70 69 69 69 69 69 69 68 69 68 68 67 67 68 68 68 68 66 66 66 67 67 67 66 66 66 69 68 68 67
66 68 70 70 70 70 70 70 69 69 69 69 69 69 70 70 70 69 69 70 69 70 68 68 68 68 68 68 67 66 67 70 68 67 67 67 66 66 66 69 66 66
67 68 69 70 70 70 70 70 69 69 70 69 69 69 70 70 70 69 70 70 70 69 69 68 68 68 68 67 66 67 68 68 67 66 65 65 65 66 68 67 66 65
67 68 68 68 69 69 69 69 70 69 70 70 71 70 71 70 70 70 70 69 69 69 69 69 69 68 68 68 69 68 68 67 66 66 67 67 66 67 68 66 65 64
67 67 66 67 68 68 69 70 70 70 70 71 70 70 71 70 70 71 70 70 69 70 70 69 69 69 68 68 68 68 68 67 67 67 68 68 68 67 67 66 65 64
68 67 67 67 68 69 69 70 70 70 70 70 71 70 71 72 70 70 71 71 71 71 70 70 70 69 69 69 69 68 67 68 67 67 69 68 68 67 67 66 65 65
69 68 68 68 68 68 69 70 70 70 71 71 71 71 70 70 71 71 71 71 71 71 71 70 70 70 69 68 69 69 68 68 66 67 68 68 67 68 68 66 67 67
70 69 69 69 70 70 70 69 69 69 70 71 71 70 69 69 69 70 71 71 71 71 71 69 69 69 70 69 69 68 67 67 68 66 66 67 66 67 66 65 67 67
65 66 67 69 69 69 69 69 69 69 69 69 70 70 70 70 70 70 70 70 70 71 72 70 70 69 71 68 68 68 67 66 66 67 65 65 65 66 66 66 67 65
67 67 68 67 69 68 67 68 68 68 69 69 69 70 69 69 70 70 70 69 69 70 70 69 69 71 68 62 65 67 66 68 67 65 66 65 65 65 65 66 65 61
70 70 69 68 67 68 68 69 69 67 66 68 68 66 64 66 68 69 69 69 70 69 69 69 68 59 49 55 54 55 68 66 65 65 65 65 65 65 64 62 60 61
70 70 69 69 68 69 69 69 68 67 66 66 66 64 62 63 65 66 64 62 62 61 60 58 58 52 49 46 50 54 57 64 66 65 66 65 66 66 66 61 60 59
70 70 69 68 69 69 69 69 68 67 66 65 64 64 63 63 64 64 62 62 62 61 59 58 59 52 50 49 46 47 49 54 66 66 65 65 64 66 63 58 59 58
71 71 70 69 69 68 68 68 68 67 65 64 63 64 63 63 63 63 62 61 61 60 60 60 60 51 45 47 47 46 45 47 64 64 64 65 65 63 59 57 56 56
71 70 69 69 70 70 68 68 67 67 66 66 63 62 64 63 63 63 63 62 61 60 60 60 59 49 44 45 45 46 45 45 59 62 63 63 61 58 59 58 58 59
68 68 68 68 69 68 68 68 68 66 66 66 65 65 65 65 64 63 62 62 62 61 60 58 59 48 44 43 43 44 44 53 59 61 61 59 57 58 60 60 60 61
66 66 66 67 67 67 67 66 66 67 67 67 65 65 65 64 63 63 64 63 62 61 61 60 58 52 47 46 43 43 44 57 60 61 60 58 58 59 59 59 61 63
65 65 65 65 65 66 65 65 65 65 66 67 66 65 65 65 65 65 65 64 63 62 62 61 61 55 48 47 44 43 46 58 60 60 59 56 57 58 58 57 54 52
63 63 64 64 65 64 64 64 64 64 65 65 65 66 65 66 66 66 65 65 64 62 59 61 61 55 44 44 43 43 46 57 61 61 59 56 57 56 58 57 56 50
62 63 62 63 64 63 63 63 64 64 63 64 64 66 66 66 66 65 65 65 64 61 61 60 60 60 49 42 42 42 43 56 61 59 57 55 57 58 58 57 53 52

ECMWFNIL_sfc_temp_033.txt.gz
Temp
65 67 67 66 66 66 65 64 63 64 63 62 63 62 61 63 63 61 61 63 63 61 62 62 62 63 64 61 61 63 62 61 61 61 61 61 62 62 62 62 60 60
65 66 66 66 65 66 65 65 64 63 63 63 63 62 63 63 62 63 62 62 61 61 61 61 60 61 62 62 61 61 61 60 61 65 61 60 60 61 61 60 60 60
64 65 66 65 65 64 65 65 64 64 64 63 63 63 63 62 62 60 60 61 61 60 60 61 61 61 61 60 60 60 59 59 59 60 60 60 59 60 59 59 59 60
63 65 65 65 64 65 64 64 64 64 63 63 63 64 64 63 61 61 62 63 59 60 60 60 60 61 61 60 59 60 59 59 60 59 58 58 59 61 61 61 61 62
62 62 63 64 64 65 65 65 64 64 64 63 63 63 63 62 61 61 60 59 59 58 58 60 60 60 60 60 59 59 59 58 58 58 58 58 59 60 60 62 61 60
61 62 63 64 64 64 64 64 65 64 64 63 63 63 62 61 61 61 60 59 58 59 59 59 59 60 61 60 58 57 58 59 59 58 59 58 60 61 65 61 59 59
61 62 63 64 64 63 64 63 63 64 64 64 63 63 63 62 62 61 61 60 59 59 59 57 58 60 59 58 56 57 58 58 59 59 59 59 59 59 60 59 59 58
61 63 62 63 63 62 63 63 63 64 64 64 63 64 64 62 63 62 60 61 60 59 58 58 59 58 57 59 60 58 57 60 59 58 58 58 57 59 58 60 58 58
62 62 62 62 63 61 62 62 62 63 64 63 63 64 63 63 62 62 61 61 60 60 60 58 59 57 57 60 58 57 57 58 59 57 57 58 59 58 60 59 59 58
62 62 62 62 63 61 62 62 62 63 63 63 63 63 63 60 62 63 61 60 61 61 60 59 58 59 60 60 59 57 59 60 58 58 59 58 59 60 60 60 57 57
61 61 61 62 62 61 62 62 62 63 62 63 62 63 62 62 63 62 60 61 61 61 60 60 61 61 61 59 58 58 60 61 59 58 58 60 60 60 61 58 57 56
61 61 61 62 62 61 62 63 62 62 61 61 62 62 61 62 63 61 62 61 61 61 61 61 61 61 61 60 59 59 59 58 58 58 58 60 61 61 60 60 58 57
58 58 58 59 61 62 62 62 62 62 62 62 61 60 60 60 62 61 60 62 63 61 62 62 61 61 61 61 61 60 61 59 58 57 57 59 58 60 61 60 60 59
59 59 59 60 61 61 62 61 61 60 62 60 61 61 60 61 61 61 61 61 63 61 62 62 61 60 61 62 62 61 60 58 59 57 58 59 59 59 60 59 59 61
58 60 60 59 60 61 61 61 61 61 62 61 61 62 62 61 61 62 62 62 61 59 61 61 63 62 62 61 61 59 60 59 60 60 58 58 58 57 58 59 57 57
58 58 58 59 59 60 61 61 61 60 61 61 60 61 61 60 60 61 60 60 62 58 58 60 61 61 60 59 58 61 59 61 59 59 58 58 59 57 57 57 57 56
58 58 59 59 58 59 59 61 60 59 58 59 58 57 56 57 58 58 57 57 56 56 55 56 54 54 44 51 52 55 61 60 59 58 56 56 57 56 55 56 55 55
59 59 59 59 57 57 57 58 59 59 59 60 58 56 56 56 58 57 56 55 56 54 54 54 55 52 46 48 48 48 53 58 60 60 59 58 59 57 57 55 55 55
58 59 59 58 58 58 58 58 58 58 58 59 58 56 55 57 57 55 55 55 55 54 54 53 53 50 47 47 46 46 45 49 56 58 60 58 57 56 55 54 55 55
60 59 58 58 59 60 59 58 57 58 57 56 57 56 56 55 56 56 55 54 53 53 53 54 54 50 46 45 44 44 44 47 54 56 56 56 56 56 56 55 54 53
58 58 58 58 58 57 57 57 58 56 58 57 57 56 56 55 55 54 55 54 53 53 53 54 56 50 45 43 42 43 43 44 51 55 56 55 55 56 56 56 56 55
56 56 56 57 57 57 57 56 55 55 55 56 55 55 54 55 54 56 56 55 54 53 53 54 55 48 44 43 42 42 43 48 50 53 54 54 54 55 56 56 56 56
55 55 55 55 56 55 54 54 54 55 55 55 56 54 55 55 56 56 56 56 55 54 54 54 54 50 45 44 43 42 45 50 50 52 53 52 53 54 55 56 56 57
54 53 53 53 53 54 54 54 53 54 55 55 53 53 54 54 57 57 56 57 56 55 55 55 55 53 47 45 44 43 46 52 51 52 52 51 52 53 54 55 56 56
53 53 53 53 53 54 53 53 53 54 54 55 55 55 55 53 54 56 57 57 57 57 56 56 55 54 48 46 45 44 46 51 52 53 52 51 52 52 53 53 53 53
54 54 54 54 54 55 55 54 53 55 55 55 54 55 55 54 54 54 52 55 57 58 57 57 56 56 54 47 46 45 44 50 52 52 52 51 53 53 52 50 50 51

ECMWFNIL_sfc_temp_036.txt.gz
Temp
62 62 62 62 62 62 62 61 61 61 60 59 60 59 59 58 58 59 58 58 59 58 58 58 58 59 61 59 59 60 59 58 57 57 58 58 57 57 58 57 56 57
61 61 62 62 62 61 61 61 61 61 60 60 60 59 59 59 58 60 59 59 58 57 57 58 58 58 58 59 58 58 58 57 58 61 58 58 57 58 57 56 57 56
60 61 61 61 62 61 60 60 61 61 61 60 60 60 60 59 59 57 58 58 58 57 57 57 57 57 57 57 57 57 57 56 56 56 56 56 55 57 56 57 56 57
59 60 61 60 60 60 60 60 60 60 60 60 60 61 61 60 58 58 59 60 58 56 55 57 57 57 57 56 57 56 55 55 55 55 55 55 55 56 54 55 55 56
60 59 60 60 60 60 61 61 60 60 61 60 60 59 60 58 57 57 57 56 56 55 55 56 56 56 56 56 56 55 55 55 55 56 57 55 55 57 56 57 56 56
59 60 61 61 60 61 60 60 60 60 60 59 59 59 58 58 57 57 56 55 55 55 55 55 56 56 56 55 55 55 55 57 55 56 57 56 56 56 60 57 57 56
60 60 60 61 60 61 60 60 60 60 59 59 58 58 58 57 57 56 55 55 55 56 55 55 55 56 55 54 54 54 54 55 54 56 57 55 56 55 55 56 56 55
60 60 61 61 61 60 60 60 60 59 59 58 59 58 58 59 58 57 56 55 55 56 55 55 55 55 54 53 54 54 55 57 55 55 54 53 54 54 54 57 54 55
60 60 61 61 61 60 60 60 60 59 59 59 58 58 58 59 59 57 56 55 55 55 54 54 54 53 53 54 53 53 54 56 55 53 53 54 55 54 56 54 55 55
59 59 59 60 61 61 60 59 60 59 59 60 59 58 59 57 57 57 57 55 56 55 55 55 54 54 54 54 54 53 54 55 53 53 53 53 55 55 55 55 55 54
59 59 59 59 59 59 60 60 60 60 58 60 58 58 58 58 58 58 56 56 57 56 56 55 54 54 54 54 54 54 55 54 53 53 53 54 55 55 57 54 54 55
58 58 59 58 58 58 59 60 61 60 59 59 60 59 57 59 60 56 59 58 57 56 55 55 55 55 55 54 54 54 54 54 54 54 54 54 54 54 54 53 54 53
58 57 57 57 58 59 60 60 60 61 59 59 59 57 58 57 58 57 57 59 59 57 57 57 56 56 55 54 55 54 55 56 54 53 54 54 54 55 54 54 53 53
57 57 56 57 57 58 59 59 59 59 59 59 58 56 57 58 58 57 57 58 59 57 58 57 56 55 55 55 55 54 54 54 54 54 54 54 54 54 54 54 53 54
57 57 57 57 57 57 57 58 58 59 59 59 59 58 59 58 57 55 57 56 56 57 58 56 58 58 58 56 55 55 54 54 53 54 55 55 54 54 54 54 53 54
56 56 57 57 57 57 57 57 58 57 58 57 57 57 57 58 57 56 56 55 55 55 55 56 57 58 60 56 56 59 54 56 55 53 54 55 56 55 54 54 55 54
56 56 57 57 56 57 56 57 58 58 57 56 56 56 56 55 56 57 54 53 54 54 56 58 57 57 52 49 50 53 58 56 56 54 53 53 53 55 55 55 54 53
55 56 56 55 55 56 57 56 57 56 56 56 55 56 55 54 55 53 53 52 52 52 53 56 55 51 42 46 48 48 54 58 57 57 55 54 55 54 56 54 54 54
56 57 56 55 55 55 55 55 55 55 55 56 56 55 53 55 53 53 52 51 52 52 53 52 52 44 42 44 47 47 47 53 57 58 58 56 55 56 55 54 52 52
55 54 54 53 54 53 53 53 54 54 53 53 53 53 54 54 53 53 52 52 52 52 51 51 50 47 40 42 43 42 42 48 56 56 56 56 56 56 56 54 54 54
51 50 51 51 52 52 52 52 51 52 53 52 53 53 53 53 53 53 52 52 52 51 50 51 53 48 41 40 40 41 41 44 51 53 55 54 55 55 56 56 55 56
50 49 49 49 50 50 50 50 50 50 51 52 52 52 52 52 51 51 51 52 52 51 51 52 53 47 43 41 40 40 40 48 50 52 52 53 53 54 55 54 54 56
50 49 49 49 49 49 49 48 49 49 49 50 51 50 49 50 52 51 52 53 51 50 51 52 53 50 44 42 42 40 42 49 50 52 52 52 53 54 53 54 55 55
49 49 49 49 49 48 48 48 48 48 49 50 48 48 49 49 49 50 51 51 51 52 53 53 54 52 47 45 43 41 45 50 50 50 49 51 51 52 52 54 56 55
51 51 50 49 49 49 49 49 48 48 48 49 49 49 49 49 49 49 49 49 50 52 54 53 53 53 48 45 45 43 45 50 51 50 49 49 50 51 51 52 53 53
50 50 50 50 50 50 50 50 50 50 50 50 50 50 50 50 50 50 49 49 49 49 51 53 52 54 53 47 45 45 44 49 50 50 50 50 50 51 52 51 51 52

ECMWFNIL_sfc_temp_039.txt.gz
Temp
63 62 61 59 59 60 59 58 57 59 58 57 57 56 56 56 56 56 56 56 56 55 56 56 57 57 58 56 57 58 57 56 56 55 57 56 56 56 57 56 56 56
61 61 61 60 59 59 58 59 58 59 58 57 57 56 55 55 57 56 56 56 55 54 55 56 56 56 56 57 57 57 56 55 56 58 57 56 56 57 56 56 55 56
60 59 60 59 59 57 57 57 58 58 58 57 57 57 58 56 56 56 55 55 55 54 55 55 55 55 55 55 55 56 56 54 54 54 57 57 56 57 56 56 56 57
59 60 60 58 58 57 57 58 57 58 57 58 57 58 58 58 55 55 57 58 55 54 54 55 55 54 54 53 54 54 53 54 54 53 53 53 54 56 55 56 55 55
59 58 57 57 57 57 57 58 57 57 58 57 57 57 58 56 55 55 54 54 53 53 54 55 54 53 53 53 53 53 54 53 53 53 53 52 52 54 54 56 55 54
58 58 58 58 57 57 57 57 58 58 57 56 57 56 55 55 54 54 54 53 52 53 53 53 53 52 52 52 53 52 52 54 53 52 53 53 52 53 56 54 54 54
58 58 58 58 57 57 58 57 57 58 57 57 56 55 55 55 54 54 54 53 53 54 53 53 53 53 51 51 52 52 52 52 52 53 54 52 53 53 53 53 54 54
59 60 59 58 57 58 58 57 57 57 56 56 56 54 54 54 53 53 53 53 53 52 53 54 53 52 51 51 52 52 53 54 53 52 52 52 52 52 52 54 53 54
60 59 59 59 58 57 57 58 57 56 56 56 55 54 54 54 54 52 53 53 53 52 52 53 52 51 50 51 51 52 52 53 52 51 52 52 53 52 52 51 53 53
59 58 58 57 57 57 57 57 58 57 56 56 55 54 55 53 52 52 53 54 55 54 52 52 53 52 52 51 51 51 52 52 51 50 51 51 51 52 52 52 52 53
57 58 58 57 57 57 58 57 58 58 57 55 54 54 54 53 54 53 53 55 56 55 54 54 52 52 53 52 52 51 51 51 51 51 51 51 51 51 55 50 52 53
57 57 57 58 57 57 56 57 58 59 57 55 55 54 54 54 54 53 54 53 54 54 53 52 51 51 51 51 51 51 51 50 50 51 51 51 52 51 51 50 50 50
57 57 57 57 56 57 58 58 57 56 57 57 56 55 55 56 55 54 54 54 54 54 53 52 52 51 51 51 51 50 51 51 51 51 51 51 51 51 50 50 50 51
56 56 56 57 57 57 57 57 57 57 56 55 56 56 56 55 55 55 54 54 53 53 53 53 53 52 51 51 51 51 51 51 50 51 51 51 52 51 51 50 50 51
56 56 56 57 57 57 57 56 56 56 56 56 55 56 56 55 55 55 55 54 54 54 54 54 54 55 54 52 52 51 50 50 50 51 51 52 52 52 51 51 51 51
56 55 56 56 57 56 56 56 57 56 56 56 56 55 54 56 54 54 54 54 55 53 52 53 54 54 56 54 54 54 50 52 51 51 50 51 52 52 51 51 51 50
56 55 55 55 56 55 55 56 56 56 55 55 55 56 56 54 54 54 53 53 54 54 52 53 54 56 52 49 47 51 55 51 52 51 50 51 51 51 51 52 51 51
54 55 55 54 55 55 55 54 54 54 54 54 54 54 54 55 53 52 51 51 52 52 51 53 54 53 49 47 46 45 49 54 52 53 52 50 51 51 52 51 52 51
53 53 52 52 52 52 53 54 53 53 52 53 53 53 53 54 54 54 52 50 51 52 51 50 50 48 42 41 43 45 45 47 51 52 53 53 52 52 52 52 50 50
51 50 50 50 50 51 51 51 51 50 51 51 51 51 52 52 54 54 54 52 50 50 50 49 48 47 42 41 41 42 42 45 50 51 51 51 52 53 53 52 51 52
49 49 49 49 49 49 49 48 48 48 49 48 48 49 50 50 51 51 52 52 52 50 49 49 51 47 42 40 40 40 40 41 49 51 52 52 52 52 52 52 52 54
48 47 47 48 48 48 47 47 46 46 46 47 47 46 47 47 47 49 50 51 51 50 49 51 51 46 43 40 39 40 40 45 47 48 50 51 52 53 53 53 53 53
47 47 46 46 46 46 46 46 46 46 46 46 47 46 46 46 46 46 47 47 49 50 49 50 51 49 44 41 41 40 42 48 47 48 48 49 51 52 53 53 54 54
47 46 46 45 45 45 45 45 45 45 46 46 45 45 45 45 45 45 46 46 46 48 49 49 50 50 46 45 43 41 43 48 48 48 49 50 51 51 51 51 53 54
47 47 46 45 45 44 45 44 45 45 45 45 44 44 44 43 46 45 45 45 46 46 51 49 48 49 46 44 44 44 44 48 49 49 49 49 49 50 50 50 51 52
46 46 45 45 45 45 45 45 45 45 45 45 45 45 44 43 44 44 44 44 44 45 46 46 46 47 48 43 44 43 42 47 49 49 48 49 49 50 51 49 49 50

ECMWFNIL_sfc_temp_042.txt.gz
Temp
61 61 61 61 60 59 58 57 57 58 58 58 59 58 58 58 57 56 56 56 57 56 57 57 57 58 58 58 59 59 59 59 58 58 58 58 58 58 58 58 58 59
60 60 60 60 59 58 58 59 58 59 58 58 58 57 56 57 56 57 56 56 56 55 56 56 57 56 57 57 58 58 57 57 58 58 57 57 57 58 58 58 58 57
59 59 59 60 60 58 58 58 58 58 58 57 56 57 58 57 56 55 55 55 56 55 55 55 56 56 56 56 57 58 57 56 57 57 58 58 57 58 57 57 58 59
58 59 60 59 59 58 57 57 56 57 57 57 57 57 58 58 56 56 57 58 55 55 55 55 55 55 55 55 56 55 55 55 55 56 57 56 57 58 56 57 57 58
58 58 58 58 57 57 58 58 57 56 57 57 56 57 58 56 56 55 55 54 55 55 55 55 54 54 54 54 55 55 55 54 54 55 56 55 55 57 56 57 57 57
58 59 58 57 57 57 57 57 57 57 56 56 57 57 56 56 55 55 54 54 53 54 54 54 54 53 53 54 54 53 53 54 54 54 55 55 55 55 57 56 57 57
57 57 57 57 57 56 57 56 56 57 57 57 56 56 55 55 55 54 54 54 54 55 54 53 53 53 52 53 54 53 53 53 53 54 55 54 55 54 55 56 56 57
57 57 57 58 57 56 57 57 56 56 56 56 57 55 55 55 55 54 53 54 54 53 53 53 52 52 51 53 54 54 54 54 53 54 54 53 54 54 54 55 55 56
58 57 57 58 58 56 56 56 56 56 57 57 56 55 54 55 54 53 54 53 53 52 53 53 52 52 51 51 52 53 54 53 53 53 54 54 55 54 54 54 55 55
57 57 57 57 56 56 57 57 57 57 57 57 56 54 55 53 52 53 53 53 54 53 53 53 53 52 52 51 52 53 53 53 52 52 52 52 53 53 53 54 54 55
56 56 56 56 56 55 56 56 56 57 57 57 55 54 53 54 53 52 53 53 54 53 54 54 53 52 54 52 52 52 52 52 53 52 52 53 53 54 56 54 55 56
56 56 56 56 56 56 56 56 56 56 56 56 56 55 53 53 53 53 54 53 53 52 53 53 52 52 53 54 52 52 52 52 52 52 52 53 53 53 52 53 55 54
56 56 56 56 56 56 56 57 56 55 56 56 55 55 55 54 53 54 54 54 53 53 53 53 53 52 52 51 51 52 52 53 52 52 52 53 53 53 52 52 53 54
55 56 56 56 57 57 57 56 56 56 55 55 54 54 54 55 55 55 54 54 53 54 53 53 53 52 51 51 51 51 53 52 52 53 53 53 54 53 53 52 52 53
55 56 56 56 57 57 57 56 56 55 55 55 55 54 55 55 55 56 55 55 55 54 54 54 55 54 53 52 52 51 51 52 52 53 53 54 54 54 54 53 53 53
55 55 55 55 56 56 55 56 56 55 55 55 55 55 55 54 54 53 53 54 55 54 54 54 55 54 56 53 52 53 51 52 52 52 53 54 55 55 55 54 53 52
54 54 54 54 55 54 55 55 55 55 54 54 54 54 54 54 54 54 52 52 52 53 53 54 54 55 52 47 46 48 53 52 54 52 52 53 54 54 55 55 54 53
49 51 50 50 51 51 52 52 53 53 53 53 53 53 53 54 53 53 53 52 52 52 52 52 53 48 42 42 42 44 49 53 53 54 53 53 53 54 55 55 54 54
49 49 49 48 49 49 50 50 50 50 49 50 50 50 51 51 51 52 52 52 52 52 51 50 51 43 40 40 40 39 41 47 53 53 54 53 52 53 53 53 53 53
50 49 48 49 49 49 48 49 49 48 47 47 48 48 48 48 49 49 50 51 51 51 51 52 52 45 41 40 40 40 39 42 50 51 53 53 53 53 53 53 52 53
48 48 48 48 48 48 48 47 46 46 47 46 45 46 46 46 46 47 48 49 49 49 50 50 51 43 42 41 41 40 40 43 49 50 51 52 52 53 53 54 54 54
48 47 47 47 47 47 46 46 45 45 45 45 46 45 45 46 46 46 46 47 48 48 48 48 49 41 40 41 41 41 42 49 49 49 50 51 52 53 53 53 54 54
47 47 46 46 46 46 45 45 44 45 45 45 45 45 45 45 44 44 45 45 46 47 47 47 48 44 40 40 40 41 44 49 50 50 50 50 52 53 53 53 53 54
47 46 45 44 44 44 44 43 44 44 44 44 43 43 43 43 44 44 44 45 45 45 47 45 46 45 41 41 41 40 43 48 49 49 50 50 50 52 52 53 53 52
46 45 45 44 43 43 43 42 43 43 43 44 43 43 43 43 44 43 44 44 44 44 47 44 44 45 42 40 41 40 43 47 48 49 49 49 50 50 51 51 52 52
45 44 44 43 43 42 42 42 42 42 42 42 42 43 43 43 43 43 43 43 43 43 43 43 43 44 44 40 41 41 40 45 48 48 49 49 50 50 50 51 51 52

ECMWFNIL_sfc_temp_045.txt.gz
Temp
69 70 68 69 70 71 70 70 71 71 72 72 72 72 73 72 70 70 70 70 70 71 70 70 70 69 69 70 70 72 72 70 70 70 69 69 69 69 69 69 69 71
66 67 68 70 70 70 70 71 70 71 71 71 73 72 71 71 69 70 70 70 70 71 70 70 70 70 70 72 70 71 71 70 70 71 69 68 70 70 69 69 69 70
64 65 67 69 69 68 69 70 70 71 71 71 70 71 70 70 69 69 70 71 71 70 69 70 70 70 71 71 71 71 71 69 70 70 70 70 70 70 70 70 70 69
64 66 68 69 69 68 68 69 69 69 69 69 70 70 70 69 70 70 70 70 71 70 70 70 70 70 71 70 70 71 71 71 71 70 70 70 69 71 70 71 70 70
66 68 70 70 69 68 68 69 69 69 69 70 69 69 69 69 70 70 70 70 70 70 70 70 70 70 69 70 70 70 70 71 69 70 71 70 70 69 69 70 70 69
67 69 69 68 67 68 69 70 70 70 69 68 69 70 70 70 71 71 71 70 70 70 69 70 70 70 70 70 70 70 70 71 69 68 70 70 70 70 70 69 69 69
64 65 66 68 68 69 70 70 69 70 70 70 69 69 69 69 70 71 71 71 71 71 71 70 70 69 70 70 71 69 69 69 69 70 70 70 69 67 69 69 70 70
64 65 67 68 68 68 69 69 69 69 68 68 69 68 70 70 71 70 70 71 71 71 70 71 70 71 70 71 71 69 68 68 69 70 70 68 67 68 68 68 68 70
64 65 67 67 67 68 68 68 68 68 69 69 69 68 69 71 70 70 71 71 71 70 71 71 71 71 70 71 70 71 70 69 68 69 69 68 68 68 69 68 68 68
64 65 65 66 67 67 67 67 67 68 69 69 69 69 70 68 70 71 71 71 70 71 71 71 71 70 70 72 72 71 71 70 70 69 70 70 69 70 70 69 69 68
63 64 64 64 64 65 65 66 66 66 67 68 68 68 69 69 69 70 70 71 70 72 72 72 72 72 71 70 69 70 71 70 70 71 70 70 70 69 66 69 68 69
62 62 62 63 63 64 64 65 65 66 66 66 69 68 68 69 70 70 72 72 72 72 72 72 72 71 72 72 71 70 70 70 70 71 70 71 70 70 70 69 69 69
62 60 60 60 61 63 64 66 67 66 67 66 66 66 67 67 68 70 70 71 72 71 71 71 71 71 70 70 70 71 70 70 70 70 70 69 70 70 70 69 70 70
61 59 59 59 61 63 64 65 66 66 66 67 68 68 67 67 67 67 67 69 69 70 70 70 70 70 71 70 71 71 70 70 70 70 71 71 70 70 69 69 68 69
62 62 62 61 61 62 63 63 64 64 65 65 65 64 64 67 68 69 69 68 68 68 68 67 68 68 69 69 70 69 70 70 70 70 70 71 71 71 70 70 70 68
62 61 61 61 60 60 60 60 61 61 61 60 59 59 61 63 65 66 68 68 68 68 67 65 65 64 54 45 50 65 69 69 68 69 70 70 71 70 70 70 70 69
56 57 58 56 57 57 58 59 59 59 60 60 61 61 60 61 63 65 65 66 66 66 63 61 57 51 40 41 42 46 63 66 67 67 67 68 68 69 70 70 69 69
53 54 52 52 52 53 55 55 55 56 58 59 59 59 59 60 60 61 62 63 64 63 61 58 52 43 40 40 40 41 51 65 66 67 66 67 68 68 70 69 69 69
52 53 54 55 56 56 56 57 57 57 57 57 56 57 58 58 59 59 60 61 62 61 59 56 51 41 40 40 40 40 39 54 68 66 67 67 67 67 67 67 68 68
55 54 54 54 55 55 55 55 55 54 54 55 56 56 56 56 57 57 58 59 60 60 58 55 51 42 40 40 40 40 40 50 65 64 65 66 66 66 66 66 66 67
55 54 53 53 53 54 53 52 51 52 54 55 55 54 55 55 56 56 56 57 58 59 58 54 50 40 40 39 39 40 41 50 62 62 64 65 65 65 65 65 66 65
52 52 52 52 52 52 52 52 53 52 53 54 54 53 52 53 54 56 55 56 56 57 57 55 51 40 40 40 40 39 43 61 62 62 63 65 65 64 65 65 66 66
50 50 49 49 49 49 50 50 50 50 51 54 54 54 54 53 53 54 55 56 56 56 56 55 53 44 39 40 40 39 49 62 61 64 63 63 63 63 64 64 64 65
50 50 49 49 49 49 49 50 51 52 52 53 52 52 52 53 54 54 54 54 54 54 54 55 53 45 39 40 40 38 45 59 61 62 61 62 63 63 64 65 63 54
49 50 50 50 50 50 50 50 51 52 53 53 53 54 53 54 55 55 54 54 53 52 49 53 54 48 40 39 39 39 47 58 59 61 60 60 61 62 62 64 64 59
47 48 48 49 49 49 49 49 51 52 52 52 53 55 54 54 54 54 53 53 53 53 52 52 52 52 46 38 40 39 39 53 58 57 56 56 58 59 59 62 62 63

ECMWFNIL_sfc_temp_048.txt.gz
Temp
74 75 76 77 78 78 77 77 78 77 78 78 78 78 78 78 78 77 77 77 77 76 76 76 76 76 77 77 77 77 77 75 75 74 74 73 72 73 72 73 72 72
73 73 74 77 78 77 76 76 77 78 78 78 79 79 78 78 77 77 77 77 77 77 77 76 77 77 77 78 76 75 76 75 75 77 74 73 74 74 73 73 73 74
73 73 74 76 76 74 74 76 78 78 78 78 78 78 77 77 76 77 77 77 77 76 76 76 76 77 77 77 76 75 76 75 75 76 75 75 75 75 75 75 74 73
72 74 75 77 77 76 77 77 77 78 77 77 77 77 77 77 77 76 77 77 76 76 76 76 76 77 78 78 76 76 76 76 76 76 75 76 75 76 75 75 75 74
71 73 75 76 77 77 77 77 76 77 76 77 77 77 77 76 76 77 76 77 77 77 76 76 77 76 76 76 77 76 75 76 76 76 76 75 75 75 75 75 74 73
71 74 76 76 76 76 76 77 77 77 77 76 76 77 77 77 77 77 77 76 77 77 76 77 77 76 77 76 76 76 76 75 75 75 75 75 76 76 77 76 75 74
70 72 73 76 76 76 76 76 77 77 77 77 78 77 77 76 77 77 78 77 78 77 78 77 76 76 76 76 76 75 76 76 77 78 77 76 76 75 77 76 76 75
70 71 73 75 75 76 76 77 76 76 77 77 76 77 78 78 78 77 77 77 78 78 78 78 77 77 77 77 77 75 75 76 76 77 78 77 76 76 76 76 75 75
71 71 71 73 74 75 75 76 76 76 77 76 76 76 77 78 77 77 77 78 78 77 78 77 77 77 76 76 76 76 76 76 76 77 76 75 75 76 77 77 75 75
72 73 73 73 73 74 75 75 76 76 77 76 77 77 77 76 77 77 77 77 77 77 77 77 77 76 76 78 77 77 77 76 77 76 77 77 76 77 78 76 75 74
71 72 71 68 68 73 74 75 75 76 76 78 76 76 76 76 77 78 77 77 75 77 77 77 77 77 77 76 76 77 77 76 77 77 77 77 76 76 74 76 75 75
71 70 69 69 69 71 73 74 75 75 76 76 77 76 76 76 76 77 78 78 78 79 78 78 78 78 78 78 78 77 76 76 76 77 77 78 77 77 77 77 76 76
69 71 72 70 70 71 73 74 75 74 75 75 76 76 76 75 76 77 77 78 78 78 78 77 77 77 77 76 77 78 77 76 76 76 76 76 77 78 78 77 77 77
66 69 70 70 70 71 72 73 74 74 74 75 75 74 74 76 76 76 76 78 77 78 77 77 77 77 77 77 78 77 76 76 76 75 76 76 76 77 77 77 76 77
71 70 71 70 70 70 70 71 72 73 73 74 74 74 74 75 76 76 76 76 76 75 76 75 75 74 72 69 75 76 76 75 75 76 76 76 76 76 77 77 77 77
70 70 71 71 70 70 69 70 70 71 71 72 73 74 75 75 76 76 76 75 75 75 74 71 69 64 50 42 46 68 76 76 75 75 76 76 76 76 76 76 77 76
70 70 71 70 70 68 67 68 68 68 69 70 70 71 70 72 74 74 74 74 74 72 69 64 60 54 41 39 42 39 63 75 74 74 75 75 76 75 75 76 76 77
61 64 65 64 64 64 63 62 62 63 62 63 65 66 67 69 70 71 70 69 68 68 65 61 56 44 39 41 40 39 44 66 75 75 74 75 75 75 77 76 75 75
59 58 58 58 58 58 59 59 58 59 59 60 61 63 66 67 68 68 68 67 66 65 64 62 59 41 40 39 41 40 42 52 77 75 74 75 74 74 75 74 75 74
57 58 56 56 56 57 58 57 58 59 59 62 64 65 66 66 67 66 67 67 66 64 62 60 56 43 40 39 40 39 41 47 76 72 73 74 74 74 74 74 73 74
58 56 54 56 58 58 59 60 60 60 62 63 64 63 63 64 65 63 64 66 66 65 62 58 52 39 40 39 40 39 40 46 73 71 73 73 72 72 73 73 73 73
57 57 56 56 56 56 54 54 55 55 57 58 60 61 61 61 61 62 62 64 64 64 62 59 53 39 39 40 39 40 39 66 72 71 71 72 72 72 73 74 74 73
56 56 55 56 56 56 56 55 54 53 56 60 58 58 58 58 58 59 61 62 62 63 61 59 56 44 39 40 40 38 51 72 70 73 72 71 72 71 73 73 72 73
56 56 55 54 54 54 54 55 54 54 54 57 57 57 56 57 57 57 57 56 56 56 59 58 55 45 39 40 40 38 47 67 71 72 70 71 71 71 73 73 69 52
54 55 54 54 53 53 54 54 55 55 56 58 60 62 62 63 63 61 59 59 58 58 54 58 58 50 40 39 39 40 49 65 69 71 69 69 70 70 71 72 71 62
54 54 54 54 53 54 55 55 56 57 58 59 60 63 63 63 63 62 60 59 59 60 59 59 59 56 47 39 39 40 39 55 67 66 66 65 67 68 68 71 70 70

ECMWFNIL_sfc_temp_051.txt.gz
Temp
68 68 74 76 77 78 78 78 79 78 78 79 78 78 78 78 78 78 78 78 78 79 78 78 78 77 78 77 77 78 78 76 76 76 76 75 74 71 72 75 74 74
67 70 77 77 77 78 79 79 79 79 78 79 79 79 79 79 78 79 78 78 78 78 78 78 78 78 78 78 77 76 77 75 74 77 75 74 74 73 72 73 74 75
71 73 76 77 77 77 78 79 79 79 79 79 79 79 79 78 78 78 78 78 78 78 77 78 78 78 79 79 78 76 76 75 74 76 76 75 74 73 72 71 72 74
73 75 77 77 78 77 77 78 78 78 79 78 78 79 79 78 78 78 78 78 78 77 77 78 77 78 79 79 77 76 76 77 76 77 75 76 75 74 73 76 75 74
72 75 77 77 77 77 77 77 77 78 77 78 78 78 78 77 77 78 77 78 77 77 77 77 78 78 78 78 78 77 76 76 77 77 76 76 76 76 76 75 75 75
75 76 77 76 76 77 77 77 78 78 77 77 77 78 78 78 78 78 78 78 78 78 77 78 78 78 78 79 77 77 76 76 76 76 76 76 76 77 78 76 75 75
73 75 75 77 77 77 77 77 77 77 77 78 79 77 78 78 78 78 79 78 79 79 79 78 77 77 78 78 77 76 76 76 77 77 77 76 76 75 77 76 77 76
73 74 75 77 76 76 76 76 76 77 77 78 76 78 78 79 79 79 79 79 79 80 79 80 78 78 78 78 78 76 76 77 77 78 78 78 76 76 76 76 75 75
73 74 75 76 75 75 75 76 75 76 78 76 77 77 79 79 79 79 79 80 79 79 80 79 79 78 78 78 77 77 77 77 78 78 77 76 75 76 78 77 75 75
72 74 74 74 74 75 75 76 75 77 78 77 77 77 78 78 79 79 79 79 78 79 79 79 79 77 78 79 78 78 78 77 78 77 78 77 77 78 80 77 76 75
73 73 72 72 73 75 74 75 76 76 77 78 77 77 78 78 78 79 79 79 77 79 79 79 78 78 78 78 78 78 78 78 78 78 78 78 78 78 76 78 76 75
71 71 70 71 72 74 74 75 76 77 77 77 78 78 77 77 78 79 79 79 79 80 80 79 80 79 79 79 79 78 78 77 78 78 78 79 78 78 79 78 76 75
66 67 68 70 72 74 74 75 76 77 77 77 78 77 77 77 78 78 78 79 80 80 79 79 79 79 79 78 79 79 78 78 77 77 78 78 79 79 79 79 78 77
63 64 67 72 72 74 75 76 77 76 77 77 78 77 76 78 78 78 78 80 79 79 79 79 78 79 79 78 79 78 77 77 77 76 76 77 77 79 78 78 78 76
64 64 65 71 72 74 75 75 75 75 76 77 76 76 76 78 78 78 78 78 79 78 78 78 75 69 62 60 66 76 78 76 77 77 77 76 76 77 77 78 78 78
64 65 67 72 71 72 74 74 74 74 75 74 75 76 76 77 77 77 77 76 76 76 76 72 68 62 48 42 45 58 70 78 76 77 77 77 76 76 76 78 78 76
66 67 70 71 72 73 73 74 75 74 73 73 74 75 75 76 76 76 76 76 76 74 70 67 62 54 40 40 41 40 58 73 75 76 77 77 76 76 76 76 77 77
67 68 70 71 70 73 73 73 73 73 72 71 70 71 73 74 74 73 71 69 68 67 65 62 57 43 39 40 40 40 44 60 74 76 75 76 77 76 77 77 76 76
62 60 61 62 65 66 67 67 68 68 67 67 65 67 69 69 69 67 66 65 65 64 62 60 57 41 40 39 41 39 41 50 74 77 75 76 76 76 77 77 76 76
60 61 58 58 59 60 60 61 62 63 63 64 65 65 65 65 65 64 64 64 64 63 60 57 52 42 40 39 41 38 39 44 72 76 75 77 76 76 75 74 75 75
56 56 55 55 56 56 57 57 57 58 60 60 59 60 61 60 60 61 62 64 65 63 60 56 50 39 40 40 40 40 39 45 72 73 75 75 75 75 75 75 75 75
56 56 55 55 55 55 54 54 54 56 56 57 59 58 61 62 63 65 64 64 64 63 61 58 53 39 39 40 40 40 42 65 73 72 72 73 73 74 74 76 76 75
54 55 55 56 56 55 55 54 54 54 56 59 57 57 57 58 59 60 62 62 62 62 60 59 55 43 39 40 41 39 49 69 72 72 73 72 72 73 74 74 74 74
52 53 51 52 54 54 53 53 53 54 54 56 56 57 57 56 56 55 55 56 57 58 60 58 55 45 39 40 41 39 46 64 71 72 72 72 73 73 74 75 67 55
52 51 50 51 51 53 55 54 55 55 55 55 56 58 59 59 59 57 56 55 54 55 55 55 53 48 40 40 40 40 47 62 69 72 71 71 72 73 73 74 67 51
52 52 53 53 52 53 55 56 57 56 58 59 60 61 60 61 61 60 58 57 57 59 59 59 56 51 46 39 39 41 39 54 67 68 67 67 69 70 70 72 71 57

ECMWFNIL_sfc_temp_054.txt.gz
Temp
65 66 67 66 66 66 69 70 72 73 73 73 72 72 72 73 74 73 73 73 74 73 73 73 73 73 74 71 71 71 72 71 71 71 71 70 69 69 69 70 68 67
65 66 66 66 65 65 66 69 72 73 72 73 73 72 73 73 73 73 73 73 74 73 73 73 72 73 73 72 72 71 70 70 70 74 70 70 69 69 68 69 68 69
66 66 66 65 64 65 67 70 73 73 72 73 73 73 73 73 72 73 73 72 73 72 73 73 73 73 73 73 72 71 70 70 71 72 71 71 70 69 69 69 68 68
66 67 66 66 66 66 68 70 72 73 73 72 72 73 74 74 73 72 73 74 72 72 72 73 73 74 74 74 72 71 71 69 70 71 71 70 70 70 69 69 69 69
67 67 68 68 68 69 71 72 73 73 73 72 73 73 72 72 72 72 71 72 72 72 72 72 73 73 73 72 72 71 70 68 70 70 70 69 70 70 69 69 68 68
68 69 70 71 71 72 72 73 74 74 73 72 72 73 72 73 73 72 72 72 72 72 72 72 73 73 73 72 71 70 71 70 70 70 70 70 69 70 72 71 69 68
66 66 66 70 72 73 72 72 72 73 73 72 73 71 72 72 73 73 73 73 73 73 73 72 71 72 71 71 71 70 70 71 72 72 72 70 70 70 72 71 71 70
66 66 66 68 70 72 72 73 73 72 72 73 71 72 73 74 74 73 73 73 73 74 72 73 72 72 72 72 71 70 70 73 72 71 70 71 69 69 69 71 70 70
67 67 67 67 68 69 71 72 72 72 73 72 72 72 73 73 73 73 74 74 74 72 73 73 73 72 71 72 70 70 70 70 71 70 70 69 69 69 72 71 69 70
69 69 70 70 70 71 71 72 72 72 73 72 73 72 73 72 73 74 74 73 73 73 74 73 73 71 72 73 73 72 71 71 72 71 70 70 70 70 73 71 69 68
70 71 70 70 70 71 71 72 72 72 72 73 72 71 73 73 73 74 73 74 73 74 74 72 72 73 73 73 72 72 72 71 72 71 71 71 71 70 72 70 69 68
70 70 70 70 71 71 71 71 72 72 72 72 74 73 72 73 72 73 75 74 74 75 74 73 73 72 73 73 73 73 72 70 72 71 72 72 70 71 72 71 69 68
67 69 70 70 70 70 70 69 72 71 71 72 73 73 72 71 72 72 73 73 74 74 74 73 73 74 72 72 74 73 73 72 70 70 71 71 70 71 72 71 71 67
65 68 69 70 70 71 71 70 71 71 71 71 72 71 71 73 72 72 72 73 73 74 73 70 65 62 60 62 65 70 71 71 70 69 71 70 70 71 70 70 69 66
67 68 69 68 68 67 67 66 67 70 71 71 71 71 72 73 72 73 72 73 73 71 67 65 61 55 51 49 56 61 66 71 71 71 69 69 71 71 70 71 69 67
65 67 67 65 65 65 64 64 63 67 69 70 71 71 71 71 71 71 72 72 70 66 65 61 57 53 45 42 44 51 60 67 70 69 70 70 69 69 69 71 67 66
63 66 66 64 63 63 63 63 63 61 66 70 70 70 70 70 70 70 69 68 66 64 60 57 53 49 42 40 40 42 55 61 65 67 70 69 68 69 67 69 67 66
62 63 64 64 64 63 62 62 62 61 65 68 68 68 68 66 64 64 64 63 62 60 57 55 51 43 40 41 41 41 43 55 63 67 68 67 69 69 70 69 67 66
60 60 59 59 60 61 61 61 62 64 64 65 65 66 65 64 63 62 61 61 59 57 55 53 51 42 41 41 41 41 39 48 65 66 68 67 69 70 68 68 67 67
58 58 58 58 58 58 58 59 60 62 63 64 64 64 63 62 61 60 60 59 58 56 54 51 48 42 40 41 41 40 40 44 63 67 67 69 68 68 68 67 67 66
56 56 56 56 56 55 55 55 57 57 58 58 60 60 60 59 59 58 57 57 57 56 54 51 46 40 41 41 41 41 42 47 63 67 67 67 68 67 68 68 69 68
54 54 54 54 53 53 53 53 53 54 54 55 56 56 57 58 57 57 56 56 56 55 53 52 49 40 40 41 41 41 46 61 65 66 66 66 66 67 66 66 67 67
51 51 51 52 52 51 51 51 51 52 52 53 53 53 52 53 53 54 56 56 56 55 53 51 49 42 40 41 41 40 48 60 64 66 66 66 66 66 67 61 58 62
49 50 50 50 50 51 51 50 51 51 51 52 51 50 50 51 52 52 53 54 55 55 54 51 49 44 40 41 41 40 46 57 62 64 64 65 66 66 62 54 50 49
48 49 49 49 49 50 50 50 50 50 51 52 52 51 51 52 52 52 52 53 54 54 53 51 48 46 41 40 41 41 46 55 61 62 60 59 63 64 62 53 50 44
47 48 48 49 49 49 49 49 50 50 51 51 52 52 52 55 55 54 53 53 54 54 52 50 47 46 43 41 41 42 43 53 56 54 54 55 58 59 61 55 52 49

ECMWFNIL_sfc_temp_057.txt.gz
Temp
64 65 65 65 65 67 67 67 68 68 68 68 68 67 67 66 68 67 67 67 67 67 68 66 66 66 68 67 66 67 68 66 66 66 65 65 63 64 65 64 63 63
64 65 65 64 63 64 65 67 67 69 68 68 68 67 67 68 68 68 67 67 67 67 66 66 66 66 67 67 66 65 65 66 66 69 66 64 64 65 65 64 64 63
62 63 64 64 63 63 64 66 67 68 68 69 69 68 67 68 68 67 67 66 66 66 67 67 66 66 66 66 65 66 66 65 65 66 66 65 64 65 63 64 63 64
61 63 64 65 64 64 64 66 66 67 68 67 67 68 69 69 67 67 67 68 66 66 66 67 67 67 67 66 65 64 65 64 65 65 65 65 65 65 64 64 64 64
62 62 62 63 64 64 64 66 66 67 68 67 67 68 68 67 67 67 66 66 67 66 66 65 65 64 66 66 65 64 64 63 63 64 64 64 65 65 64 64 63 63
63 63 62 64 64 64 65 66 68 69 68 67 67 68 67 67 67 66 66 66 66 66 65 65 64 64 66 65 64 64 64 65 65 64 64 65 65 65 67 65 63 63
62 62 63 64 64 65 66 66 67 69 69 68 68 67 67 66 66 65 66 67 66 66 66 64 63 64 63 64 64 63 63 64 64 65 65 64 65 64 66 65 65 65
62 62 63 64 65 66 66 66 68 68 68 68 67 67 67 67 67 66 66 66 65 66 64 64 64 63 62 64 64 63 62 66 65 64 64 64 63 64 64 66 65 63
63 63 63 64 65 66 67 68 68 67 68 67 67 67 66 66 67 65 66 66 65 65 63 64 64 63 63 62 63 62 62 63 64 62 62 63 62 63 64 64 64 63
63 64 63 64 66 66 67 68 69 68 68 68 67 66 66 65 67 66 66 64 66 64 64 63 64 64 63 64 65 63 63 62 61 62 63 64 63 63 63 63 62 62
63 63 63 63 63 64 67 68 68 68 68 68 67 65 65 67 67 66 65 66 66 65 65 64 64 63 63 63 64 62 62 62 62 63 64 61 61 62 66 63 62 61
61 63 63 61 61 62 66 68 68 68 68 68 68 66 65 67 67 68 67 66 65 66 66 65 62 61 61 63 63 62 62 62 62 61 62 63 61 64 64 63 62 60
61 61 62 61 61 62 66 68 68 67 68 68 67 67 67 67 67 67 65 66 65 64 62 59 58 58 58 59 61 62 61 62 61 61 61 63 62 62 63 62 61 61
61 60 60 62 62 63 65 67 67 67 68 67 67 67 67 67 66 65 63 62 61 60 58 56 55 53 53 54 58 58 59 61 61 61 60 61 61 62 61 61 61 60
60 61 61 61 61 61 62 66 67 67 66 67 67 67 67 65 65 64 62 61 59 57 55 54 51 49 48 47 52 55 58 60 60 61 60 61 61 61 61 61 60 60
61 61 61 61 61 61 60 61 63 63 65 67 67 66 65 64 64 62 61 59 57 54 52 51 49 48 45 43 44 49 54 60 59 58 60 62 61 60 60 60 60 59
61 60 60 60 60 60 60 62 62 62 63 64 63 62 61 61 61 60 58 57 55 53 50 49 46 45 42 40 41 44 54 57 58 58 58 59 60 60 59 59 57 57
59 60 60 59 60 60 60 61 61 61 61 61 61 60 59 59 58 57 55 53 52 51 49 48 45 43 40 41 41 41 46 55 58 58 59 58 59 62 61 59 57 56
59 58 58 57 58 58 59 60 60 60 59 58 58 59 59 57 55 54 53 51 50 48 46 46 45 42 41 41 41 42 42 50 58 59 59 58 59 61 61 58 56 57
56 56 55 55 56 56 57 58 59 58 58 57 57 57 56 55 54 53 51 50 49 48 46 45 44 42 41 42 41 42 42 48 56 58 58 58 59 60 59 59 58 59
53 53 53 53 54 54 54 55 55 55 55 55 55 54 54 53 52 51 51 50 49 48 47 46 43 41 41 41 41 43 46 51 57 58 59 59 59 58 59 60 58 56
50 51 51 51 51 52 52 52 52 53 52 52 52 52 53 52 52 51 49 49 48 48 47 46 45 41 41 42 42 43 48 56 57 57 56 59 55 53 53 55 56 53
49 49 49 50 50 50 50 50 50 50 50 51 51 50 50 50 50 50 51 50 49 48 47 47 46 42 41 42 43 44 50 57 57 57 57 55 51 50 49 50 50 49
48 48 48 48 49 49 49 49 49 49 49 50 50 49 48 49 50 49 49 49 49 48 48 47 46 43 42 42 43 45 50 55 55 55 55 55 51 50 48 46 48 51
47 48 48 48 48 48 48 49 49 49 49 50 49 49 49 49 50 50 49 48 48 48 50 47 46 45 42 42 43 44 49 51 52 52 52 51 51 49 48 46 46 46
47 48 48 48 48 48 48 48 49 49 49 50 50 49 49 49 49 49 49 48 48 47 47 47 46 45 44 42 43 43 45 50 50 49 50 51 52 51 48 46 46 46

ECMWFNIL_sfc_temp_060.txt.gz
Temp
63 63 62 62 62 65 65 64 65 66 65 66 66 66 66 65 66 66 65 65 66 65 64 64 64 65 66 66 65 65 65 64 64 63 63 62 62 62 62 61 61 62
62 63 63 63 62 63 64 65 66 67 66 66 66 64 64 65 65 66 65 65 65 65 63 64 64 65 65 65 65 64 64 64 63 65 63 62 62 62 62 61 62 60
61 61 63 63 63 63 64 65 66 66 67 66 65 66 66 66 65 65 64 65 65 64 63 64 64 65 65 64 64 64 64 62 63 63 63 63 62 62 62 61 60 61
61 61 62 63 63 63 64 65 66 66 67 65 66 67 67 66 65 64 64 66 64 63 63 64 64 64 64 63 63 63 62 62 63 63 63 62 63 63 62 62 61 61
62 61 61 62 62 63 63 64 65 67 66 68 67 66 66 65 64 64 63 63 64 63 63 64 63 63 64 64 65 62 62 61 62 62 62 62 62 63 62 62 61 61
62 62 62 62 62 63 63 63 64 66 67 67 66 67 66 66 65 64 63 63 64 64 63 63 62 62 63 62 62 63 62 61 61 62 62 62 62 62 64 62 61 61
62 62 62 63 63 63 63 62 63 64 66 68 67 67 66 65 65 64 64 64 64 64 64 61 61 61 62 62 62 61 62 63 62 63 63 62 62 61 62 62 62 62
63 62 62 62 63 63 61 62 63 63 65 67 67 66 67 66 65 64 65 65 64 64 62 62 62 62 62 62 61 61 60 63 63 62 62 62 62 62 61 63 62 61
64 62 62 62 62 61 62 62 62 63 65 66 67 66 66 66 65 65 66 65 65 64 62 62 62 62 61 61 61 61 61 61 62 62 61 61 61 62 62 62 61 61
63 63 62 62 62 61 61 62 62 63 64 65 67 67 66 65 66 66 65 65 65 63 63 62 61 61 61 62 63 61 61 61 60 60 61 61 61 61 60 60 60 59
62 62 62 61 60 60 61 62 62 62 64 66 66 65 66 65 65 66 65 65 64 64 62 62 62 61 62 62 61 60 61 61 61 60 61 60 61 61 62 60 60 60
61 61 60 60 59 60 61 62 62 62 63 65 66 65 65 65 65 65 66 64 64 64 62 59 58 58 60 61 60 59 59 59 59 60 60 60 59 59 61 61 61 60
60 60 60 60 59 60 61 62 62 62 63 63 63 65 65 65 65 64 62 63 62 61 59 57 56 56 56 55 57 58 58 57 57 58 58 57 58 61 61 60 60 59
60 60 60 60 60 61 62 62 62 62 62 62 62 64 65 65 63 61 60 61 59 58 56 55 54 53 52 53 55 56 57 58 59 59 59 58 58 59 60 59 59 59
60 59 60 60 60 60 61 61 61 62 62 61 62 64 63 62 61 60 58 57 56 55 54 53 51 49 48 48 53 56 55 57 57 59 59 59 59 59 58 57 56 56
59 60 60 60 59 60 60 60 60 61 60 61 62 62 61 61 59 59 57 56 54 52 51 50 48 47 47 45 47 53 55 58 57 56 58 58 59 58 56 56 57 56
59 59 60 59 60 60 59 59 60 60 59 59 60 60 59 59 58 56 55 54 53 52 50 48 45 46 43 42 42 49 55 56 56 55 56 58 58 58 58 56 55 55
59 59 59 59 59 59 59 58 58 58 58 57 58 57 56 56 55 54 52 51 50 50 49 48 46 43 40 42 42 45 53 56 55 56 57 57 58 58 57 55 54 54
58 58 59 58 58 58 58 58 58 57 56 56 56 55 55 53 52 52 50 50 50 49 47 47 47 42 40 42 42 44 49 54 56 56 56 55 56 56 55 54 53 52
52 58 57 57 57 57 57 57 57 55 54 53 54 54 53 51 50 49 49 48 49 48 47 47 46 42 41 43 44 45 47 52 56 56 55 55 55 55 55 53 52 50
49 51 54 55 56 56 55 55 54 53 53 51 51 51 50 49 48 48 48 48 48 48 48 47 45 41 41 43 44 46 47 50 54 53 52 51 52 52 51 50 49 49
48 48 50 52 53 53 53 52 52 52 51 50 49 49 48 48 47 47 46 47 47 48 48 47 46 41 41 43 45 47 49 53 52 50 49 49 49 49 49 49 49 48
48 48 48 49 50 50 50 50 50 50 50 50 49 48 47 47 47 46 47 47 47 48 47 46 46 42 41 43 45 47 49 52 51 49 48 47 46 47 48 49 49 50
48 48 47 48 49 48 49 48 49 49 48 48 48 47 46 46 46 45 46 47 47 47 47 46 45 43 42 43 44 46 50 53 52 50 48 47 46 46 46 46 48 50
47 48 47 47 48 48 48 48 48 48 48 49 49 48 46 46 46 46 45 46 47 48 49 47 46 45 42 42 42 45 50 53 53 51 49 48 47 46 47 46 46 45
47 47 47 47 47 48 48 48 48 48 48 48 48 48 47 46 45 46 45 45 46 46 47 47 46 45 43 41 42 43 45 52 52 51 49 48 48 48 47 47 46 45

ECMWFNIL_sfc_temp_063.txt.gz
Temp
61 60 61 61 62 62 62 62 63 63 63 63 63 62 62 63 64 64 64 64 64 64 64 64 64 64 64 64 64 64 63 63 63 62 62 62 61 61 61 60 59 60
62 61 61 62 61 61 62 62 63 63 64 64 64 63 63 63 64 65 64 64 64 64 63 63 63 63 63 63 63 63 62 62 62 63 62 61 61 61 61 60 60 59
61 61 61 61 61 61 61 62 63 64 64 64 64 64 64 64 64 64 64 64 63 62 62 63 63 63 64 63 63 63 62 61 61 61 62 61 60 60 60 60 60 59
61 61 61 61 62 62 62 62 62 62 62 62 62 64 64 64 64 63 63 65 63 62 62 62 63 63 63 63 63 62 62 61 62 61 61 60 60 61 60 60 59 59
61 61 61 61 61 61 61 62 62 62 62 62 62 62 63 63 63 63 63 63 63 61 61 62 62 62 63 62 63 61 61 60 60 61 61 60 60 61 59 60 59 59
61 61 61 61 61 60 60 61 63 63 63 62 62 63 62 62 62 63 63 62 62 62 61 61 61 62 62 62 62 62 61 60 60 60 60 60 59 59 61 60 59 59
61 62 62 62 61 61 61 62 62 63 63 62 62 62 62 61 61 62 63 63 62 62 62 61 61 61 61 62 61 60 60 60 60 60 60 59 60 59 59 60 60 60
62 62 62 61 60 60 61 61 62 61 62 62 62 62 62 62 62 62 62 63 63 62 62 61 61 61 60 61 61 60 59 61 60 60 60 60 59 60 59 60 60 60
63 62 62 61 60 60 61 61 61 62 62 62 62 61 62 62 61 62 63 63 63 62 62 61 61 61 60 60 60 60 60 60 60 60 60 60 59 60 60 60 59 59
62 62 62 62 59 60 61 60 61 61 62 62 62 61 61 61 61 62 63 64 63 62 61 61 61 61 60 61 61 60 60 60 60 60 61 61 61 61 60 60 60 59
60 62 62 61 59 59 60 61 61 62 62 63 61 61 61 60 61 61 63 64 63 62 61 60 61 61 61 60 60 60 60 60 60 60 60 60 60 60 61 60 59 60
60 61 61 60 60 60 60 61 61 61 61 61 62 62 61 61 60 62 64 63 63 62 61 60 60 60 61 60 59 58 58 59 59 59 59 59 59 59 60 60 60 60
60 60 61 60 60 60 60 61 61 61 61 61 62 62 61 60 61 62 63 63 61 60 59 58 59 59 59 58 57 57 57 57 57 58 58 58 58 58 59 59 59 59
58 59 60 60 60 60 60 60 60 61 61 62 61 61 61 61 60 61 60 60 58 57 54 54 54 54 53 54 56 57 56 56 56 57 57 56 56 57 58 59 59 58
56 59 59 60 60 60 60 60 60 60 61 61 61 61 60 60 60 59 57 56 54 53 53 52 52 51 50 52 55 54 55 56 56 57 57 56 55 56 56 55 55 54
53 58 60 59 59 60 60 60 59 59 60 60 60 59 58 57 57 56 56 55 53 51 51 50 49 48 48 48 52 54 55 56 56 55 56 56 56 55 54 55 55 54
51 54 59 58 59 60 60 60 60 59 59 60 59 57 56 56 55 55 55 55 54 52 50 48 46 47 44 44 46 50 55 55 56 55 54 56 57 56 55 53 52 52
50 51 56 58 59 59 60 60 59 59 59 58 56 55 54 54 54 53 53 53 52 51 49 47 46 43 41 44 45 48 52 56 56 56 56 55 55 55 54 52 50 50
50 50 53 57 58 59 59 59 59 58 57 55 54 53 52 53 52 51 50 50 51 50 48 47 46 41 41 44 44 46 48 52 54 54 54 53 53 53 52 51 49 49
49 50 50 52 57 58 57 58 58 56 54 53 51 51 51 51 50 50 49 49 49 49 48 46 45 42 42 44 44 44 46 50 54 54 53 53 52 51 50 49 48 48
49 48 49 50 51 55 57 56 54 51 51 49 49 48 48 49 49 48 48 48 48 48 48 46 44 41 43 43 44 44 45 48 52 51 50 49 48 48 47 47 47 47
48 48 48 48 50 50 51 51 50 49 48 48 47 46 45 45 47 48 47 47 48 48 47 46 45 41 43 43 44 44 47 51 50 49 48 47 47 47 46 46 46 47
47 48 47 47 48 48 48 48 48 47 47 47 46 45 44 43 45 46 47 47 47 47 46 45 44 42 42 43 43 45 47 50 49 48 46 45 45 45 46 47 47 46
47 48 47 47 47 47 47 47 47 47 46 46 44 43 43 43 44 46 47 47 46 46 46 44 44 42 41 42 43 44 48 51 50 48 46 45 44 44 44 45 47 49
46 47 47 47 46 46 47 47 47 46 45 45 44 44 43 44 44 44 45 46 47 47 48 45 44 43 41 41 43 45 49 51 50 49 47 45 45 44 44 44 44 44
45 46 47 47 47 47 47 47 47 46 45 45 45 44 44 44 44 44 43 43 45 45 46 45 44 43 42 41 42 43 45 50 50 49 47 46 46 46 45 45 44 43

ECMWFNIL_sfc_temp_066.txt.gz
Temp
61 61 62 62 61 61 62 61 62 62 62 62 62 62 62 63 63 63 63 63 63 63 63 63 63 63 64 63 64 64 64 64 64 63 63 63 62 62 61 61 61 62
61 62 62 62 62 61 61 62 62 62 62 62 62 62 61 62 62 63 63 63 63 63 63 63 64 64 64 63 63 63 63 63 63 64 63 63 62 62 62 62 62 61
60 60 61 62 62 61 61 61 61 61 62 62 62 62 62 62 62 62 62 63 63 63 63 63 64 64 63 63 63 63 63 62 62 62 63 63 62 62 62 62 61 61
60 60 61 61 61 61 61 61 61 62 61 61 61 62 62 63 63 62 62 64 62 63 63 63 63 63 63 63 62 63 63 63 63 63 62 62 62 62 61 61 61 61
60 60 60 61 61 62 61 61 61 61 61 61 61 62 62 62 61 62 62 62 62 62 62 62 63 62 63 63 63 63 62 61 61 62 62 61 61 62 61 61 60 60
60 60 61 61 61 61 61 61 61 62 62 61 61 62 62 62 62 61 61 62 61 61 61 62 62 62 63 63 62 63 62 61 60 61 61 61 60 61 61 61 61 60
60 60 60 61 61 61 61 61 62 61 62 62 62 62 62 62 62 61 62 61 61 60 60 60 61 61 62 62 62 62 61 62 61 62 62 61 61 60 61 61 61 61
61 61 61 61 61 61 61 61 61 62 62 62 62 62 62 62 62 61 61 61 60 60 61 61 61 62 61 62 62 61 61 61 61 62 62 61 60 61 60 61 61 61
61 61 61 61 61 60 60 61 61 61 62 61 62 61 62 62 61 61 61 61 60 60 60 61 61 62 61 62 62 62 61 61 61 62 62 61 60 61 61 61 61 61
60 61 62 61 61 61 60 61 61 61 61 62 62 61 61 61 61 61 61 61 60 60 60 61 61 61 61 62 62 62 61 61 61 61 62 62 61 61 61 61 61 60
57 59 61 61 61 61 60 61 61 61 61 62 61 61 61 61 61 61 60 60 60 60 61 61 61 61 61 61 61 61 62 61 61 61 61 62 62 62 62 61 61 61
54 56 57 59 61 61 61 61 61 61 61 61 61 61 61 60 61 60 61 60 61 61 61 61 61 62 62 62 61 61 61 61 61 61 61 62 61 61 62 61 61 61
52 53 54 57 59 61 61 61 61 61 61 61 61 61 60 60 60 60 60 61 61 61 61 61 61 61 61 61 60 60 60 60 60 60 60 60 61 61 62 61 62 62
51 52 53 55 58 60 61 60 60 61 61 61 61 61 60 60 60 60 60 60 60 61 61 61 60 60 60 60 60 59 59 59 60 60 60 60 60 60 60 60 60 60
51 51 53 54 57 60 60 60 60 61 61 61 60 60 60 60 60 60 59 58 58 58 58 58 59 59 59 59 59 58 59 59 59 60 60 59 59 58 57 57 56 56
51 51 51 53 56 58 60 60 60 60 60 61 61 60 60 60 59 59 58 57 56 55 56 56 56 55 55 53 55 59 58 59 58 59 59 59 57 56 55 55 55 56
50 50 51 51 53 57 59 60 60 60 60 60 60 59 59 59 58 57 56 56 56 55 55 54 53 53 48 45 48 51 57 58 58 57 58 58 58 57 54 54 54 54
49 50 50 50 52 53 57 60 60 60 59 60 59 58 57 57 57 57 56 55 55 55 54 53 51 48 43 44 45 46 52 58 58 57 57 57 57 56 55 54 52 52
49 49 49 50 51 52 54 58 59 59 59 58 57 57 56 55 56 55 54 53 54 53 52 51 51 43 42 44 44 45 47 53 57 57 56 56 56 55 54 53 52 52
48 48 48 49 49 50 51 53 57 58 58 57 55 53 54 53 52 52 52 52 52 52 50 49 49 44 42 43 43 44 45 50 56 55 55 54 54 53 52 52 52 53
47 47 47 48 49 49 49 49 48 48 51 50 51 51 50 50 50 50 50 51 50 50 49 48 45 42 42 42 42 44 45 48 54 52 52 50 49 49 50 49 50 50
46 46 47 47 47 47 47 46 46 46 46 46 46 46 45 46 46 48 48 48 48 49 49 47 45 41 41 42 43 44 47 52 51 50 50 48 48 48 48 48 49 49
46 45 46 46 46 46 46 45 45 44 44 45 44 44 43 43 44 44 45 45 47 47 47 45 45 42 41 42 43 45 48 51 50 49 48 47 47 47 48 49 48 48
45 45 45 46 45 45 45 45 45 45 44 44 43 43 43 43 44 43 44 44 44 45 46 45 44 42 41 42 44 45 49 51 50 48 47 46 45 46 46 47 48 49
44 45 45 45 45 45 45 45 45 44 45 45 44 44 44 44 44 43 43 43 44 44 47 45 45 44 41 41 42 45 49 51 50 48 46 46 45 45 45 46 45 45
44 44 45 45 45 45 45 45 45 45 45 44 44 44 43 43 43 43 42 42 43 43 43 43 43 43 42 41 42 43 46 51 51 49 47 46 47 47 45 45 45 45

ECMWFNIL_sfc_temp_069.txt.gz
Temp
67 67 67 67 67 67 67 66 66 67 65 64 62 63 64 65 66 65 64 64 65 66 67 67 67 66 67 67 68 69 69 69 70 71 70 69 69 71 71 71 68 69
67 66 67 67 67 66 66 66 66 66 66 64 64 64 65 65 65 65 64 64 64 64 66 67 67 67 67 67 67 67 67 67 67 71 70 69 69 70 70 70 70 70
65 65 65 65 65 66 66 66 66 66 66 66 66 66 65 65 66 64 64 64 64 65 64 65 66 67 67 68 68 67 68 68 68 69 70 71 71 69 69 67 67 68
64 65 65 66 66 66 67 67 66 67 67 66 66 67 66 65 65 64 63 65 64 65 65 64 65 66 67 69 68 67 68 69 70 70 69 70 69 69 68 68 67 69
64 65 66 67 67 66 66 66 66 66 66 66 67 67 66 66 65 64 63 64 64 65 64 65 65 65 65 66 66 66 67 67 69 69 69 69 68 66 68 68 67 69
65 67 67 66 66 65 65 65 66 66 67 66 66 67 67 67 67 65 65 64 65 64 64 64 65 65 64 64 65 65 67 68 69 69 70 70 68 68 70 69 69 69
62 64 64 65 64 65 65 65 67 66 67 68 68 67 68 68 68 67 67 67 67 65 64 64 65 65 66 65 65 64 67 70 70 70 70 71 69 67 69 70 69 71
61 63 64 64 64 65 65 66 66 67 68 68 68 69 68 68 69 69 69 68 67 67 66 66 66 67 67 65 65 66 67 70 70 68 69 72 70 70 70 71 71 72
60 61 62 62 62 63 64 65 66 67 68 66 66 68 69 69 68 69 68 69 68 67 68 67 66 67 67 67 66 65 66 69 70 70 70 71 71 71 72 72 70 71
58 59 59 59 60 61 62 64 66 67 68 67 68 68 68 67 66 68 69 69 68 67 66 66 66 66 67 68 68 67 68 69 71 71 71 72 72 73 73 72 71 71
56 57 56 56 56 58 60 62 64 66 67 67 67 68 69 68 67 68 69 69 67 67 67 66 66 67 67 67 68 69 70 70 71 71 71 72 72 73 71 73 72 72
55 55 56 56 56 56 57 60 63 64 66 66 67 67 69 69 68 68 69 70 69 69 69 68 69 68 68 67 68 69 70 70 71 71 72 73 73 72 73 73 72 73
54 55 55 56 56 56 57 59 62 63 65 66 66 66 67 67 68 69 68 70 71 71 70 69 69 68 68 67 68 68 69 69 70 71 71 71 69 66 67 72 73 74
55 55 55 56 57 58 58 59 61 63 64 65 65 65 65 66 67 67 69 69 70 71 71 70 70 69 68 67 68 68 68 68 70 70 71 70 69 68 69 70 71 72
55 55 56 56 57 58 58 58 60 62 64 64 64 64 64 65 66 67 68 69 70 69 69 68 69 68 68 67 67 68 69 69 70 70 71 71 71 70 69 70 70 70
55 55 55 56 56 56 57 58 59 61 62 63 64 64 65 65 65 65 66 67 68 69 69 67 66 67 63 57 59 67 68 70 69 70 71 71 70 69 69 68 67 69
54 54 55 55 55 56 57 57 58 60 61 62 62 63 63 64 63 64 65 66 68 68 67 66 66 65 52 48 50 55 65 68 69 70 71 71 70 68 69 69 69 71
53 53 54 54 54 55 56 57 57 56 56 58 60 61 61 62 61 62 64 65 66 68 67 66 65 56 47 47 48 50 56 68 70 71 69 69 69 68 68 68 67 66
52 52 53 53 53 54 56 56 56 55 53 52 53 57 60 60 60 60 62 62 63 65 66 66 63 48 44 46 46 47 50 60 72 71 70 69 69 69 69 68 67 65
52 51 51 52 52 53 54 55 54 53 52 51 51 52 54 57 59 59 58 58 60 62 64 63 60 45 42 44 44 44 46 56 70 69 69 69 69 68 67 67 66 66
51 51 50 51 52 53 53 53 52 51 51 50 49 48 48 49 50 53 53 54 55 56 57 56 52 41 42 42 42 44 45 54 65 65 66 66 65 65 66 66 66 66
50 50 49 51 52 52 51 51 51 50 49 50 49 47 47 46 47 48 50 50 51 53 52 50 48 40 40 41 42 44 48 59 61 62 61 62 61 62 63 64 66 66
51 50 49 50 51 51 50 50 49 49 49 49 48 47 46 45 45 46 47 48 48 49 49 47 46 42 40 41 42 45 51 58 56 56 57 57 57 57 59 60 62 65
51 50 49 50 51 50 49 50 50 50 49 49 47 45 44 44 45 45 45 46 46 46 46 46 45 42 40 41 43 46 51 56 55 54 53 54 54 55 56 58 55 49
51 50 49 50 51 50 50 49 49 49 49 49 47 46 45 45 45 44 43 44 44 44 46 44 43 42 40 40 41 44 52 54 54 53 51 51 52 51 52 53 53 50
51 50 48 49 50 50 50 49 49 49 48 47 47 46 45 44 44 44 42 42 43 43 43 43 42 41 41 40 41 41 43 52 54 52 50 51 51 51 49 50 51 51

ECMWFNIL_sfc_temp_072.txt.gz
Temp
69 71 71 72 73 73 73 73 74 74 73 73 73 73 72 72 73 72 71 70 69 68 69 69 69 68 68 69 69 70 72 69 68 69 67 67 73 74 71 72 69 70
68 70 72 72 73 73 74 74 73 73 73 73 73 73 74 73 73 73 72 71 71 70 70 70 70 70 70 70 69 68 68 67 67 71 68 67 72 73 72 73 69 74
67 68 70 70 70 72 72 72 74 73 72 73 73 73 73 73 73 73 73 72 69 68 69 69 70 71 72 72 71 69 68 68 70 71 71 71 72 73 71 72 66 69
67 68 69 70 70 70 71 70 71 73 73 72 72 74 74 73 73 73 73 72 70 69 70 70 70 71 72 72 70 68 67 67 71 72 70 69 69 70 71 73 70 71
66 67 68 69 70 70 69 69 70 71 72 72 73 73 73 73 73 73 72 72 72 71 70 69 69 70 71 70 70 67 68 67 68 70 69 70 71 70 73 73 73 74
65 67 69 68 69 69 69 70 70 70 71 71 72 74 74 75 75 74 74 72 72 72 70 69 68 69 70 70 69 69 69 69 70 70 70 67 69 72 73 73 73 73
64 65 65 68 67 68 68 70 70 70 70 71 72 72 73 73 73 74 74 73 73 73 72 70 68 68 69 70 70 69 70 71 73 73 70 70 65 67 73 73 74 75
64 65 66 66 65 66 66 68 68 69 71 71 70 72 73 73 74 73 74 74 74 74 73 73 70 70 70 70 69 68 69 70 71 72 71 69 66 67 66 70 73 74
64 64 65 64 64 64 64 64 65 66 69 70 70 71 72 73 73 74 73 74 74 73 74 73 74 72 72 71 69 69 70 70 72 73 72 67 67 71 69 72 74 72
65 65 64 63 62 63 63 63 64 65 67 67 69 70 72 73 74 74 74 74 73 73 73 73 73 73 72 72 72 71 71 72 73 72 72 71 69 70 74 70 72 72
65 65 63 62 62 62 62 63 64 64 65 67 67 67 71 72 73 74 74 73 72 73 72 72 73 73 72 71 71 71 73 73 74 74 72 70 68 70 69 67 69 68
65 64 63 63 63 62 62 64 64 65 65 65 66 66 68 70 71 73 73 73 74 73 73 71 72 72 73 73 72 72 72 73 73 71 72 71 70 71 69 75 75 72
64 63 63 64 63 63 63 65 65 65 65 65 66 66 67 68 69 70 72 72 74 72 74 73 76 76 74 73 72 72 72 72 71 72 71 70 70 70 73 72 72 71
64 64 65 65 65 65 63 64 65 65 65 66 66 65 66 67 67 68 70 74 73 72 69 73 77 77 75 73 71 71 70 71 70 68 70 70 70 71 74 75 75 71
62 63 64 65 65 64 63 62 63 63 63 64 64 65 66 66 67 67 69 71 72 71 69 68 67 73 76 73 71 70 70 69 69 73 73 70 69 72 76 76 77 77
63 63 64 64 63 63 63 63 62 62 62 62 61 62 63 66 67 66 67 68 69 69 69 67 67 69 68 59 61 71 71 71 72 71 72 70 70 73 74 75 75 76
62 63 63 62 62 62 62 62 61 61 61 61 61 61 61 62 63 66 65 66 67 67 68 67 67 68 56 51 51 55 69 70 69 69 71 73 74 73 74 74 75 76
61 62 61 61 61 61 61 61 60 59 59 59 58 58 59 61 60 61 64 65 66 68 67 66 65 60 51 48 49 49 55 70 69 68 71 73 73 72 73 75 73 73
62 61 60 60 60 60 60 60 59 57 56 56 56 58 58 57 57 56 57 60 65 68 67 67 66 51 46 47 47 48 48 58 69 69 73 71 72 72 72 74 74 73
60 60 59 59 59 59 59 59 57 56 56 56 56 56 56 55 54 52 53 55 58 62 66 67 65 45 44 44 44 44 46 50 68 72 73 70 72 72 73 74 74 74
60 59 58 59 59 58 58 57 55 55 55 55 55 54 53 52 51 51 51 52 53 55 59 61 55 40 42 43 43 42 43 47 65 67 71 71 71 71 71 72 73 73
59 58 58 58 58 57 57 56 55 54 53 53 53 53 53 52 52 51 49 49 51 52 53 54 55 40 39 41 41 42 42 55 66 67 68 68 68 69 70 69 69 69
57 57 57 58 58 56 56 55 54 53 52 52 51 51 50 50 50 49 49 48 48 48 48 50 53 45 38 41 40 41 44 58 64 66 66 64 64 66 67 68 68 69
58 58 57 58 57 56 55 55 54 54 53 52 51 49 48 49 49 49 49 48 47 46 47 47 48 46 39 40 43 41 47 58 61 63 63 61 60 62 64 62 56 48
59 58 57 57 56 56 56 56 55 54 53 52 51 51 49 50 49 49 48 48 48 47 46 46 46 46 41 40 39 42 50 57 56 59 60 59 58 56 58 58 55 52
58 58 57 57 57 56 56 55 55 55 53 52 51 51 49 48 48 49 47 46 47 47 46 46 44 44 44 39 41 42 45 54 55 58 55 54 55 55 54 51 51 50

ECMWFNIL_sfc_temp_075.txt.gz
Temp
71 71 71 72 72 73 74 74 73 74 72 69 69 69 72 76 76 75 75 75 74 73 72 72 73 70 70 70 70 71 70 69 70 68 69 68 68 69 68 70 70 72
68 68 69 70 71 73 74 74 73 72 72 71 70 69 68 68 71 74 75 74 74 74 73 73 73 71 70 68 71 71 70 69 67 68 67 69 70 70 69 69 68 69
67 67 67 67 68 70 72 73 73 74 74 73 72 68 68 69 71 69 72 74 74 74 73 73 73 73 73 72 72 71 70 68 68 70 71 72 70 70 68 67 66 67
68 67 67 68 69 70 71 71 73 74 73 74 72 72 69 68 68 69 72 75 74 73 74 73 72 73 73 73 71 69 71 69 70 71 71 71 70 69 67 66 66 68
68 68 68 68 68 68 69 69 70 71 71 69 71 70 69 69 69 71 74 75 75 74 73 73 73 73 71 69 68 66 67 66 70 71 69 68 68 68 68 65 66 67
70 70 70 69 69 67 67 68 69 69 69 70 69 70 67 68 69 73 71 69 72 75 74 74 73 72 70 68 67 66 65 67 73 71 72 69 68 69 70 68 68 67
70 69 68 68 67 67 67 67 67 67 68 68 70 70 71 72 70 73 76 75 72 75 76 75 74 72 72 69 67 67 66 66 72 73 73 72 73 71 70 70 69 67
69 70 69 68 66 66 66 66 67 67 68 69 69 70 72 73 75 72 73 72 74 71 74 76 74 75 73 71 70 68 68 69 70 70 69 71 70 71 70 69 70 67
68 69 68 67 66 66 65 66 66 67 69 68 68 69 71 72 72 73 73 72 68 70 68 67 70 71 72 72 69 70 70 69 70 70 68 67 67 68 70 71 70 70
68 68 67 68 67 66 65 65 67 67 68 68 68 68 69 71 73 72 71 70 68 69 71 69 67 69 72 73 73 68 68 69 71 69 67 68 70 69 70 71 72 71
66 67 66 67 66 66 66 67 67 67 67 67 67 67 69 70 72 72 69 70 71 71 73 73 70 68 67 69 70 68 68 70 69 70 68 69 69 70 69 70 72 72
66 65 67 67 66 66 67 67 67 66 66 66 67 66 66 67 69 70 70 70 70 71 71 71 71 68 67 67 67 68 67 69 73 72 71 69 67 67 68 73 73 73
65 66 66 66 66 66 66 66 67 66 66 66 66 65 65 65 66 67 70 69 68 68 65 67 69 70 69 68 68 67 68 74 72 73 69 68 68 66 69 71 74 74
65 65 66 66 66 67 66 66 66 66 65 65 65 64 64 64 64 64 64 68 69 67 66 66 68 69 70 70 70 68 66 68 71 70 70 70 69 71 70 71 72 72
65 65 66 66 66 66 65 65 65 64 65 64 63 63 62 63 63 62 62 61 63 65 66 65 65 66 67 67 66 67 67 67 67 67 67 68 67 68 68 72 72 71
65 64 65 65 65 64 64 64 65 64 63 63 62 62 62 62 62 61 60 59 59 61 63 66 66 68 65 56 55 62 65 67 68 67 69 71 70 71 72 71 72 71
64 63 64 63 64 64 63 64 64 63 61 61 60 60 59 59 60 59 58 58 57 58 58 61 65 67 56 50 49 49 60 65 64 66 67 66 65 64 71 68 70 71
63 63 62 62 63 63 62 63 62 61 60 59 58 58 58 58 57 57 57 56 55 55 56 58 60 54 46 46 47 47 49 60 65 64 65 67 67 66 67 70 70 70
62 61 61 61 61 62 61 61 61 60 59 58 57 57 57 56 55 54 54 54 53 52 53 55 57 45 43 41 41 41 44 51 64 65 65 65 65 65 66 66 67 66
61 61 60 61 61 61 61 60 59 59 58 58 57 57 55 55 54 53 53 53 52 51 50 51 53 46 41 41 41 40 41 45 60 63 65 65 66 66 65 64 64 64
60 60 59 60 60 60 60 59 59 58 58 57 57 56 54 53 52 52 51 51 51 51 50 49 50 44 41 40 40 40 40 43 57 61 64 64 65 66 66 65 64 65
60 59 58 59 59 59 58 57 57 57 56 57 56 56 56 55 53 53 51 50 50 50 49 47 49 43 41 40 39 39 39 50 57 61 64 65 65 67 64 63 63 63
61 59 58 58 58 58 57 56 55 55 55 56 56 56 55 54 53 52 52 50 49 49 47 46 47 45 41 40 39 39 42 54 58 61 63 65 66 65 65 63 59 63
62 61 59 58 58 57 57 57 57 56 55 55 54 55 55 54 54 54 53 51 49 48 47 45 45 45 41 39 38 39 41 49 54 58 61 61 61 61 60 54 52 49
62 61 60 59 58 58 58 57 56 56 56 56 55 55 54 55 54 54 53 51 50 48 47 45 45 45 42 39 38 39 42 51 54 58 60 59 59 57 57 55 52 50
62 60 60 60 60 60 60 59 58 58 57 56 55 55 54 54 54 53 52 51 50 48 47 46 44 44 43 38 39 39 39 48 56 55 54 54 54 54 53 50 49 49

ECMWFNIL_sfc_temp_078.txt.gz
Temp
66 66 66 66 67 68 68 68 68 69 69 69 68 69 68 69 69 67 67 66 66 66 68 69 70 70 69 69 68 67 66 66 66 67 66 66 65 66 65 66 65 65
66 66 66 66 67 67 67 67 67 67 67 68 69 68 69 68 68 68 67 65 65 66 67 68 68 68 68 67 67 66 65 64 65 67 66 66 65 66 66 66 66 67
66 66 66 66 66 66 66 67 67 67 66 67 69 69 69 70 69 68 68 67 66 65 66 66 67 67 66 66 68 67 65 64 64 65 66 65 65 65 66 66 66 67
67 66 66 66 66 66 66 66 66 67 67 66 67 68 69 69 69 69 68 68 66 66 66 66 66 66 65 64 65 65 65 65 65 65 65 64 65 66 66 66 66 67
66 66 67 66 66 66 65 65 65 65 66 66 67 67 68 68 68 69 68 68 67 66 65 65 65 65 65 65 65 64 64 63 64 64 64 63 64 65 65 66 66 66
66 68 67 67 66 65 65 65 65 65 65 65 66 67 68 69 69 68 68 68 66 66 65 65 65 65 66 66 65 64 64 64 65 65 64 64 64 64 65 66 66 66
65 65 65 66 66 65 65 65 65 65 65 66 67 66 67 68 68 68 68 67 67 66 65 65 65 65 65 64 64 64 65 66 66 65 65 64 64 64 65 65 65 66
65 65 66 66 65 65 64 65 65 65 65 66 65 66 67 67 68 67 67 67 66 65 66 66 65 65 64 64 64 63 64 66 66 66 64 64 63 63 65 64 64 66
65 65 65 64 64 64 64 64 64 64 66 64 64 65 66 66 66 66 66 66 66 66 65 65 64 63 65 65 64 63 64 65 65 65 63 63 63 63 64 65 64 65
64 64 64 63 62 63 62 63 63 63 64 64 64 64 64 65 66 66 65 64 63 64 65 65 65 64 65 66 65 64 63 64 65 64 64 64 64 63 63 64 64 63
62 63 62 62 62 62 62 63 63 63 63 63 63 62 62 63 63 64 63 63 62 62 62 63 65 65 65 65 65 64 64 64 65 64 64 64 65 64 64 64 64 64
62 61 61 61 62 62 62 62 62 62 62 62 62 61 61 61 61 61 62 61 61 61 61 62 63 65 65 65 64 64 64 64 64 64 63 64 64 64 64 64 64 64
61 61 61 61 61 61 61 62 62 61 61 60 61 60 59 59 59 59 59 59 59 59 59 60 60 62 63 56 55 59 62 64 64 63 63 63 64 64 65 64 64 64
61 61 61 61 61 61 61 61 61 61 60 60 60 58 58 58 57 57 57 58 57 57 57 58 58 60 51 50 49 50 51 57 62 63 63 64 64 65 64 64 64 64
61 61 61 61 61 61 60 60 60 60 59 59 59 58 58 57 57 56 56 55 56 55 55 55 56 56 49 47 46 46 48 51 56 61 63 63 63 63 64 64 64 63
60 60 61 60 60 60 60 60 59 59 58 58 58 58 58 57 56 56 55 54 53 54 54 53 53 54 49 45 44 45 46 48 51 56 62 62 61 61 62 63 64 64
60 60 60 59 59 59 59 59 59 58 58 57 57 57 56 56 55 55 54 53 53 52 52 52 52 52 44 42 41 42 44 45 48 51 58 61 62 62 62 62 62 63
59 59 59 59 59 59 59 59 58 58 57 56 56 56 56 56 54 54 53 53 52 51 50 50 50 48 41 41 41 40 41 43 45 51 55 59 62 62 61 60 61 63
60 59 58 58 58 59 59 58 57 56 55 55 55 56 56 54 53 53 53 52 51 50 49 49 50 45 41 41 40 39 39 41 44 49 54 56 60 61 61 61 60 60
59 59 58 58 58 58 58 58 56 55 55 55 55 55 54 53 53 53 53 51 50 49 48 48 49 44 41 40 39 39 39 39 44 49 53 57 58 61 62 61 61 60
59 58 58 58 58 58 57 57 56 55 55 54 54 54 53 52 52 52 52 51 50 49 48 47 47 42 41 40 39 39 39 40 46 51 54 56 58 60 62 62 61 62
59 58 58 58 58 58 57 56 55 55 54 55 54 54 53 53 53 53 51 50 49 49 47 46 47 42 41 40 39 39 39 44 47 50 53 55 57 60 61 61 61 61
59 58 57 58 58 57 57 55 55 55 55 55 54 53 52 52 51 51 52 51 49 48 47 46 46 44 41 40 40 39 40 44 48 50 52 54 56 59 60 61 61 62
59 58 58 57 57 57 56 56 56 55 55 55 54 53 52 52 52 51 51 51 49 48 47 46 46 45 42 40 40 40 41 45 48 50 53 54 56 55 52 51 51 48
59 58 58 57 57 56 57 56 56 55 55 55 55 55 53 53 52 51 51 50 49 48 48 46 46 45 42 40 40 40 41 44 44 45 48 48 49 50 50 48 48 48
59 58 57 57 57 56 57 56 57 56 54 54 54 55 54 53 53 52 50 49 49 48 47 46 45 45 44 40 40 40 40 42 43 42 43 44 44 45 45 45 45 45

ECMWFNIL_sfc_temp_081.txt.gz
Temp
59 60 61 61 62 63 64 63 64 63 63 64 64 64 64 65 66 65 65 64 64 63 63 63 64 64 65 64 63 64 64 64 64 64 64 63 63 63 63 63 62 63
60 60 61 60 60 61 61 62 63 63 62 62 63 64 65 66 66 66 65 65 64 63 63 63 63 64 64 64 63 62 62 63 63 64 63 63 62 63 63 63 63 63
60 60 60 59 59 59 59 61 62 62 61 61 61 62 64 66 66 67 66 66 65 64 63 63 63 63 63 63 63 63 63 63 63 63 63 63 63 63 63 63 63 64
60 60 60 60 58 59 59 60 60 60 60 60 61 63 64 64 65 66 66 67 66 65 63 63 63 63 63 63 62 62 62 63 63 62 62 62 63 63 63 63 63 63
59 60 60 61 60 60 60 60 60 61 61 61 61 62 62 62 62 64 64 65 65 64 63 63 63 62 62 62 63 62 62 61 62 63 63 62 62 63 63 63 63 63
59 60 60 60 60 59 59 59 60 60 60 60 60 61 61 62 62 62 62 63 63 62 62 62 63 63 62 62 62 62 61 61 62 62 62 62 62 63 63 63 63 63
59 58 59 59 59 59 58 58 59 60 59 59 60 59 60 60 61 61 61 61 61 61 61 61 61 62 63 62 62 62 62 62 62 62 62 62 62 62 63 63 63 63
58 58 58 58 58 58 58 58 58 58 58 58 58 58 58 58 59 60 60 59 58 58 59 60 60 61 59 56 56 57 60 63 62 62 62 63 62 61 63 63 63 63
57 58 58 57 57 57 57 57 57 57 58 57 57 57 58 58 57 58 57 57 56 56 56 57 58 56 52 52 51 52 52 54 59 62 62 62 62 61 62 63 62 62
57 57 57 57 56 56 56 57 57 57 58 57 57 57 57 57 57 56 56 55 54 54 53 54 56 52 51 49 49 49 50 50 53 56 61 62 61 61 62 62 62 62
56 56 56 56 55 56 55 56 57 57 58 58 57 56 56 56 56 56 55 54 53 53 52 52 54 50 49 47 48 48 47 48 50 52 55 60 62 62 63 62 62 62
55 55 55 55 55 55 55 56 56 57 57 57 57 56 56 55 55 54 54 53 53 52 52 52 53 49 48 47 46 46 46 46 47 49 52 56 61 62 62 62 62 62
55 55 55 55 55 55 55 56 56 56 57 56 57 56 55 54 54 54 54 53 52 52 51 51 52 49 47 46 45 45 44 45 45 47 49 53 57 61 63 63 63 63
54 55 55 55 55 56 56 56 56 55 55 56 56 55 54 54 54 53 53 53 52 51 51 51 51 49 47 46 44 43 43 43 44 45 47 50 54 58 62 63 63 63
54 55 55 55 55 55 55 55 55 54 55 55 55 55 54 54 54 53 52 51 51 50 50 50 49 48 47 45 43 43 43 42 43 44 45 47 51 55 60 63 63 62
54 54 54 54 55 54 54 55 54 54 53 54 54 54 54 54 54 53 52 51 50 50 49 49 48 48 47 44 44 43 42 42 42 43 44 46 49 53 57 61 62 62
53 52 53 53 54 54 54 54 54 53 53 52 52 52 52 53 53 52 51 50 49 49 48 48 48 47 43 41 41 42 43 42 42 42 43 45 49 51 55 58 61 62
52 52 52 51 52 53 53 53 53 53 52 52 52 51 51 52 52 51 50 49 49 49 48 48 47 45 41 41 41 41 42 43 42 42 43 45 48 51 54 57 59 61
52 51 51 51 50 51 52 52 51 51 51 51 51 51 50 49 50 50 49 49 48 47 47 48 47 44 41 41 41 41 41 42 44 45 45 46 49 52 54 56 59 60
52 51 51 51 50 50 51 51 50 50 50 50 51 50 49 49 48 48 48 48 48 47 47 47 47 44 41 40 41 40 41 42 46 47 48 49 51 53 54 55 57 58
51 50 50 50 50 49 49 49 49 49 50 48 48 49 48 47 47 47 48 48 47 47 46 46 46 43 40 40 40 40 41 43 45 46 48 49 49 51 52 53 54 57
50 49 49 49 49 49 48 47 47 48 48 49 47 47 48 47 46 47 46 46 47 46 45 44 45 42 41 40 40 39 41 44 44 45 45 46 47 48 48 48 49 48
49 49 48 48 48 48 48 46 45 46 46 48 46 45 46 46 45 45 45 45 45 45 43 43 43 43 41 40 40 40 42 44 44 44 44 44 45 46 46 46 46 47
49 48 47 47 46 46 46 47 46 44 45 46 45 44 45 45 44 44 45 44 44 43 44 43 42 44 42 40 40 40 41 42 43 42 42 43 43 44 45 44 45 47
48 47 47 46 45 45 46 46 46 46 44 44 44 44 44 44 45 43 43 43 43 44 47 44 43 43 42 40 40 40 41 41 42 41 41 42 42 42 43 43 44 45
46 46 45 45 44 44 45 46 46 46 45 44 42 44 44 42 43 43 42 43 42 42 43 43 43 43 43 41 40 40 40 41 41 39 38 40 41 41 41 41 42 42

ECMWFNIL_sfc_temp_084.txt.gz
Temp
57 58 57 57 57 58 57 58 59 59 59 59 59 59 59 61 63 63 63 63 64 64 63 64 64 63 63 63 63 62 62 63 63 63 63 63 63 63 62 62 62 62
57 57 58 57 57 57 57 58 58 57 57 57 57 57 58 60 60 62 62 62 62 62 62 62 63 63 63 63 63 62 62 61 61 63 63 63 63 62 62 62 62 62
56 56 56 55 55 56 56 57 57 56 56 57 57 57 58 59 59 59 60 60 60 59 60 61 61 61 59 60 60 62 61 61 61 63 63 62 62 61 62 62 62 62
56 56 56 56 55 55 56 56 56 56 56 55 55 56 57 57 58 58 57 58 57 57 58 59 60 56 55 54 54 54 56 58 61 62 62 62 62 62 62 62 62 62
55 55 56 56 56 56 55 55 54 55 54 54 55 55 55 55 55 56 55 55 55 54 55 56 56 53 53 52 53 52 53 53 55 57 60 61 62 62 62 62 62 62
55 55 56 55 55 54 54 54 54 54 54 53 54 55 54 54 53 54 54 53 53 53 53 54 54 52 52 50 50 50 50 51 52 53 54 57 61 62 62 62 62 62
54 54 54 55 54 54 53 53 54 55 54 54 55 54 54 53 53 53 53 53 52 52 52 53 51 50 50 49 49 48 48 49 50 51 52 53 56 59 62 62 62 62
53 53 53 53 53 53 53 53 54 55 55 54 53 54 54 53 53 53 53 52 52 52 52 53 50 49 49 48 47 46 46 48 48 48 49 50 53 55 58 62 62 61
53 52 52 52 52 52 52 53 53 54 55 53 52 53 54 53 53 53 52 52 51 51 51 51 49 48 48 48 47 46 45 45 46 47 47 48 49 52 54 58 61 61
52 52 52 52 52 52 51 52 52 53 54 52 52 52 52 53 53 52 51 51 50 50 50 50 49 48 48 47 46 46 45 45 45 46 46 47 48 50 52 55 58 60
51 52 52 51 51 51 51 52 52 53 54 53 52 51 52 52 52 51 51 50 49 49 49 49 49 48 47 46 46 46 45 45 44 45 45 46 47 49 52 53 55 58
50 50 51 51 51 51 51 51 52 52 52 52 52 51 52 52 51 51 51 50 50 50 50 50 49 48 46 45 45 45 45 45 45 45 45 45 46 48 49 51 53 56
50 50 49 50 50 50 51 51 51 51 51 51 51 51 51 51 50 49 50 50 50 50 49 48 47 47 45 44 44 44 44 44 44 44 44 45 45 46 48 50 52 55
50 50 50 50 50 49 50 50 51 51 51 51 51 50 50 50 49 48 48 49 48 48 48 48 46 46 45 44 43 43 43 44 44 45 44 45 45 46 47 49 51 53
49 50 50 50 50 49 49 49 49 50 50 50 50 49 50 49 49 48 47 47 47 47 47 47 46 45 44 43 42 42 43 43 45 45 45 45 46 47 48 49 51 53
49 50 50 50 50 49 49 48 48 49 49 49 49 49 48 49 48 48 47 46 46 46 46 46 45 45 45 43 43 42 42 43 44 46 46 46 47 47 48 50 51 53
48 48 48 49 49 49 48 48 48 48 48 48 48 47 47 47 47 46 46 46 45 44 44 45 44 45 43 41 40 41 43 43 44 45 46 47 48 48 48 49 51 53
48 47 47 47 48 48 48 47 47 46 47 47 46 46 46 46 45 45 45 44 44 44 43 44 44 45 41 41 40 40 42 43 43 44 45 47 47 47 47 48 48 48
47 46 45 45 45 46 46 47 46 45 45 45 45 46 44 44 44 44 44 44 44 43 43 43 43 43 41 41 40 40 40 42 43 44 45 45 46 46 46 46 46 46
46 46 45 43 44 44 44 45 45 44 43 43 44 44 43 43 43 43 43 43 43 42 42 43 43 43 41 40 40 39 39 41 43 43 44 45 46 46 46 45 45 45
45 44 44 44 43 43 42 43 43 42 43 43 43 42 41 41 41 41 43 43 42 42 42 42 43 42 41 40 40 39 40 41 42 42 43 44 45 45 45 45 45 45
44 42 42 42 43 43 42 41 41 41 41 42 42 41 41 41 41 41 41 41 41 41 41 41 42 42 41 40 40 39 40 42 41 41 41 42 44 45 45 45 45 45
43 42 42 41 41 43 42 41 40 41 41 42 41 40 40 40 40 41 41 40 41 41 41 41 41 42 41 40 40 39 41 41 42 41 41 41 42 44 45 45 44 45
43 41 41 41 41 42 42 42 41 41 41 41 39 39 40 40 41 41 41 41 40 40 42 41 40 42 41 40 40 39 41 41 41 41 40 40 40 43 44 44 44 46
42 42 41 41 42 42 42 42 42 42 41 40 40 39 40 39 43 40 41 41 41 41 45 41 40 42 42 40 40 40 41 41 41 40 39 38 39 41 43 42 42 43
43 44 42 42 43 42 43 42 42 42 41 41 41 40 39 38 39 40 39 40 40 40 40 40 40 41 42 40 40 40 40 41 40 39 37 38 39 40 40 40 41 41

ECMWFNIL_sfc_temp_087.txt.gz
Temp
54 55 54 54 54 54 54 54 54 53 53 53 53 53 53 55 56 55 55 56 56 56 57 57 55 55 54 54 55 55 56 56 57 58 58 60 61 62 62 62 63 62
53 54 55 54 53 54 53 53 53 52 52 52 52 52 53 53 53 53 53 53 53 53 55 55 54 54 53 52 53 53 53 54 54 56 55 56 59 61 62 62 62 62
53 53 52 52 51 52 52 53 52 52 51 52 52 52 52 53 52 52 52 52 51 52 53 53 52 53 52 51 51 51 50 51 51 53 53 54 56 58 60 62 62 62
52 52 52 52 51 51 52 52 51 51 51 51 51 52 52 52 52 51 51 52 50 51 53 52 51 50 50 50 49 49 49 49 50 51 51 52 54 55 56 59 61 62
52 52 52 51 51 51 51 51 51 51 50 50 51 51 51 51 51 50 50 50 50 51 52 50 50 48 49 48 48 47 48 47 49 49 49 49 51 52 54 56 57 59
52 52 52 52 51 50 51 51 51 50 50 50 50 51 50 50 50 51 51 50 51 51 51 49 48 48 47 47 46 46 46 46 47 47 47 47 48 50 52 53 54 56
50 50 50 51 51 51 50 50 51 51 50 50 51 50 50 49 49 50 51 51 51 51 49 48 47 46 47 46 46 45 46 46 47 47 45 45 47 47 50 51 52 54
50 49 49 49 49 49 49 49 50 50 50 50 49 50 50 49 49 49 50 49 49 49 48 48 47 46 46 45 44 44 44 46 46 46 46 46 45 45 47 48 50 51
50 49 49 49 49 49 48 49 49 49 50 48 49 49 49 49 48 48 48 48 48 47 47 46 46 45 45 44 43 43 43 44 45 45 45 45 45 45 45 47 48 49
49 49 50 49 49 49 48 48 49 48 50 48 48 49 48 48 49 48 48 47 47 47 46 46 45 45 44 44 43 43 43 43 44 45 46 46 45 45 46 47 47 47
47 48 48 48 48 48 48 48 48 48 49 49 48 48 48 47 48 48 47 47 46 46 46 45 45 44 44 43 43 43 42 43 44 45 46 46 47 47 48 47 47 47
46 46 46 46 47 47 47 48 48 48 47 48 48 47 47 47 46 47 48 46 46 46 45 45 45 44 44 43 42 42 42 42 43 44 45 47 47 48 48 48 48 48
46 45 45 46 46 47 47 47 47 47 47 47 48 47 46 46 46 45 46 46 45 45 45 45 44 44 44 42 42 42 42 42 42 43 44 46 47 48 49 49 49 50
46 46 46 47 46 46 46 46 46 46 46 47 47 46 45 45 45 45 45 45 45 44 45 45 44 44 43 42 42 42 42 42 42 42 43 45 47 48 49 49 50 50
46 46 46 47 46 46 46 45 46 45 45 45 45 45 46 45 45 44 44 43 44 44 43 44 43 43 43 42 41 42 42 41 41 42 42 44 46 47 48 48 49 49
46 46 46 45 45 45 45 45 44 45 45 44 44 44 43 45 43 44 43 43 42 42 43 43 43 43 45 43 43 42 41 42 41 42 42 43 44 45 46 47 47 48
45 44 45 45 44 44 44 44 44 44 44 44 43 43 43 44 43 42 42 42 42 42 41 42 42 44 42 40 40 41 42 41 41 41 42 43 44 44 44 45 46 47
43 43 43 43 44 43 43 43 43 43 43 42 42 42 43 43 42 41 42 41 42 41 41 42 42 44 40 41 40 40 42 42 41 41 41 42 43 44 44 45 45 46
41 42 41 42 42 41 41 42 42 42 41 41 41 42 41 41 40 41 41 41 41 40 40 41 41 43 41 41 40 40 40 41 41 41 41 41 42 43 44 44 44 44
41 41 40 40 40 40 40 40 40 40 39 40 41 41 40 40 40 40 40 40 41 40 39 41 41 43 41 41 40 40 39 41 41 41 41 41 41 42 43 43 43 43
41 41 40 39 39 39 38 38 38 38 39 39 39 39 39 39 39 38 40 40 39 39 39 40 41 42 40 40 40 39 39 41 41 41 41 41 41 42 42 43 43 43
41 39 39 38 39 39 38 38 37 36 37 39 39 38 39 38 39 39 38 38 39 38 38 39 41 41 40 40 40 39 40 41 40 40 40 40 40 41 42 43 44 43
40 40 39 38 38 38 37 37 38 38 37 39 37 37 37 37 38 38 38 37 38 39 38 39 39 41 41 40 40 39 40 40 40 40 40 40 40 41 42 42 43 43
40 39 38 38 37 38 37 37 37 37 38 37 36 36 37 36 37 37 38 38 38 37 39 39 38 41 41 40 40 39 40 39 39 39 38 38 39 41 41 42 42 44
38 39 38 38 38 37 38 37 37 37 37 36 36 35 36 36 40 37 37 38 37 38 43 39 37 40 41 40 40 40 40 39 39 38 37 38 38 39 41 40 40 42
40 40 39 38 38 37 37 38 38 37 36 36 36 36 36 36 36 37 36 37 37 37 38 38 37 39 41 40 40 40 40 40 38 37 36 37 38 39 38 39 39 40

ECMWFNIL_sfc_temp_093.txt.gz
Temp
59 59 58 58 57 57 57 56 57 56 55 56 55 55 55 56 57 57 56 56 56 55 55 55 55 55 55 56 55 56 56 55 56 55 54 54 53 53 52 52 52 54
57 58 58 58 58 58 58 57 56 56 55 54 55 55 56 56 56 56 55 55 56 55 55 55 55 55 55 55 54 54 55 55 54 55 54 54 53 53 53 52 53 54
57 57 57 56 56 56 56 56 56 56 55 55 55 55 55 56 55 56 56 55 55 54 54 54 54 54 54 54 54 54 54 54 53 54 54 54 54 54 54 54 53 53
57 57 57 57 57 56 56 56 55 56 56 55 55 55 55 55 56 55 55 55 54 54 54 54 54 54 54 54 54 54 54 54 54 54 54 56 55 54 53 54 54 54
57 57 57 57 56 57 56 55 55 55 55 54 55 55 55 55 55 55 55 54 54 54 54 54 54 53 53 53 53 53 53 53 54 53 53 54 54 53 53 54 54 53
57 58 58 57 56 56 55 55 54 54 54 54 54 55 55 55 55 54 54 54 54 54 53 53 53 53 53 53 53 52 52 52 52 52 52 53 54 54 53 54 54 53
56 56 56 56 56 55 54 54 54 54 54 55 55 54 55 54 54 54 54 54 54 54 53 53 53 52 52 52 52 52 52 52 52 53 52 52 53 53 54 53 53 53
55 56 56 56 55 54 54 54 54 54 54 55 53 54 54 54 54 53 54 54 54 54 53 53 53 53 52 52 51 51 51 52 51 52 52 52 52 52 53 53 53 53
55 55 55 54 54 54 54 54 54 54 55 54 54 54 54 54 53 54 53 54 54 53 53 53 53 53 52 52 51 51 51 51 51 52 52 51 51 52 53 53 52 52
55 55 54 54 53 53 53 54 54 54 55 54 54 54 53 54 54 54 53 53 52 53 53 53 52 52 52 52 51 51 51 51 52 52 52 52 52 53 52 52 52 51
54 54 53 53 53 53 53 54 54 54 54 54 54 53 53 54 54 54 53 53 52 53 53 53 52 52 52 52 52 52 52 51 52 52 52 52 52 52 52 52 52 51
53 53 53 53 53 53 53 53 54 54 54 54 54 53 53 53 53 53 53 53 53 53 53 53 53 52 52 51 52 52 52 52 52 52 52 53 53 53 53 53 52 52
53 53 53 53 53 53 54 54 54 53 54 53 54 54 53 53 53 54 53 53 53 53 52 52 52 52 51 51 51 51 51 51 51 52 52 52 53 53 53 53 53 53
53 53 53 53 54 54 54 54 54 54 54 54 54 53 53 53 53 53 53 54 53 53 52 52 52 51 50 50 50 50 51 51 52 52 51 52 52 53 53 53 53 53
53 53 54 54 54 54 53 53 53 53 54 54 54 53 53 54 54 53 53 53 53 52 52 52 51 50 48 47 48 49 51 51 51 51 51 51 52 52 53 53 53 52
54 54 54 54 54 54 54 54 54 54 54 53 53 53 53 53 53 53 53 52 51 52 51 50 50 49 45 42 43 46 49 50 51 51 51 51 51 51 52 52 52 51
54 54 54 54 54 54 54 54 54 54 53 53 53 53 52 53 52 52 52 51 51 51 50 50 50 48 41 40 40 41 46 49 50 50 51 51 52 51 51 50 50 51
54 54 54 53 54 54 54 55 54 54 53 53 52 52 52 52 51 51 51 51 50 51 50 50 50 44 40 40 40 40 42 47 51 51 51 51 51 51 50 49 48 48
54 54 54 54 54 54 54 54 54 53 53 52 51 52 52 51 51 51 50 50 50 50 50 50 50 43 40 40 40 40 40 44 52 50 51 50 51 50 49 48 47 46
54 54 53 54 54 54 54 54 53 52 52 52 52 52 51 50 50 50 50 50 50 50 50 50 50 43 40 40 40 39 39 42 51 50 51 52 52 50 48 48 47 45
55 54 54 54 54 54 54 53 52 52 52 52 52 51 50 50 50 49 49 49 50 50 50 49 49 41 40 39 39 39 39 44 51 51 51 51 51 50 49 48 47 46
55 54 53 54 54 54 53 52 52 51 51 51 52 52 52 51 51 50 49 49 49 49 49 49 50 41 40 40 39 39 41 51 51 51 50 50 50 49 50 49 48 47
55 54 53 54 54 53 53 52 51 51 51 52 51 51 50 50 50 50 50 49 49 49 48 49 50 45 40 39 39 38 44 51 51 51 50 49 49 49 50 50 49 49
56 56 54 53 54 53 52 51 52 52 51 51 50 50 50 50 51 51 51 50 49 48 48 48 49 46 40 40 39 38 42 49 51 50 49 49 50 50 51 51 50 47
55 55 54 54 53 52 52 52 52 51 51 52 51 52 51 51 51 51 50 50 50 49 46 47 49 47 42 39 39 39 43 50 50 50 49 48 49 49 51 51 50 49
55 54 54 54 53 52 53 52 52 52 51 51 51 52 52 52 51 51 50 50 50 50 49 49 48 49 47 39 39 39 39 46 50 48 47 48 49 49 49 50 49 50

ECMWFNIL_sfc_temp_096.txt.gz
Temp
66 66 65 64 64 64 63 63 63 62 63 63 62 62 62 62 63 62 62 63 62 62 62 62 63 62 62 63 62 64 64 62 62 62 62 62 62 61 59 59 59 59
63 64 64 64 64 63 63 63 63 63 62 62 63 63 62 62 62 62 62 62 63 62 62 62 62 62 62 63 62 62 62 62 61 62 61 61 62 61 60 59 60 60
64 63 62 61 61 60 62 64 63 62 61 61 62 62 62 62 62 62 62 62 62 62 62 62 62 62 62 62 62 62 61 61 60 61 62 62 62 61 61 61 61 60
62 62 62 62 62 62 63 62 62 62 62 62 61 62 62 62 62 62 61 62 62 61 62 62 61 61 62 62 62 62 61 62 61 61 61 62 62 61 61 62 61 62
61 61 62 63 63 63 62 61 61 61 61 61 62 62 62 62 62 62 62 61 61 61 61 61 61 61 61 61 61 60 61 61 61 61 61 61 61 61 61 61 61 60
63 64 64 62 62 62 61 61 61 61 61 60 61 62 62 62 62 61 61 61 61 61 61 61 61 60 61 61 61 60 60 60 60 61 61 60 61 62 61 61 60 60
61 61 61 62 61 61 61 61 61 61 61 61 62 61 62 61 61 62 62 61 61 61 61 61 60 60 60 60 60 59 60 59 60 61 60 60 61 61 61 60 60 60
60 61 62 62 61 61 60 61 61 61 61 62 60 61 62 61 62 61 62 61 61 62 61 61 61 61 60 60 59 59 59 59 59 60 59 60 60 60 60 60 59 60
61 61 61 60 60 60 60 61 60 61 62 61 61 61 61 61 61 61 61 62 62 61 61 61 60 60 59 59 58 59 59 59 59 59 58 58 58 59 60 60 59 59
60 61 60 60 60 60 59 60 61 61 61 60 61 61 61 61 62 62 61 61 60 61 61 60 59 59 59 59 59 59 59 59 59 59 59 59 59 59 59 59 59 58
59 60 59 59 59 60 59 60 60 60 61 62 61 61 61 61 62 62 61 61 59 60 60 59 59 58 58 58 58 58 59 58 59 59 59 59 59 59 58 59 58 58
59 59 59 59 59 59 59 60 60 60 61 61 62 61 61 61 61 61 61 61 61 60 60 59 58 58 57 57 58 58 59 59 59 59 59 59 59 59 59 59 58 58
59 59 59 59 59 59 60 60 60 60 61 61 61 61 61 61 61 61 60 60 60 59 58 58 57 56 55 55 56 57 58 59 58 58 58 59 59 59 60 60 60 59
60 60 60 60 60 60 60 60 60 60 60 61 61 60 60 61 60 60 60 61 59 59 58 57 57 55 54 53 54 54 55 57 58 58 58 58 58 60 60 59 59 59
60 60 61 61 61 60 59 59 60 60 61 61 61 60 59 61 61 60 60 60 60 58 58 57 55 53 51 49 50 51 54 56 58 58 58 58 58 59 59 59 59 58
61 60 61 61 60 60 60 60 60 60 60 60 60 60 60 60 60 59 60 59 58 58 57 55 53 52 45 42 43 48 53 56 57 58 58 58 58 57 57 58 58 58
61 61 61 60 60 60 60 61 60 60 60 59 59 59 58 59 59 58 58 58 58 57 56 55 53 50 40 40 40 40 48 55 57 57 58 58 58 57 56 56 56 57
59 60 59 59 60 61 61 61 60 60 59 59 58 58 58 58 57 57 57 57 57 57 56 54 53 43 40 40 40 39 42 50 58 57 58 58 58 57 56 55 54 54
58 59 59 59 60 61 60 60 60 59 59 58 57 57 58 57 57 56 56 57 57 56 55 54 53 42 40 40 40 39 40 44 59 57 57 57 57 56 56 54 54 53
60 60 59 60 60 60 60 60 59 58 58 58 58 58 57 56 56 55 56 56 56 56 55 54 52 43 40 39 40 39 39 42 59 57 57 57 57 57 56 55 54 52
61 61 61 60 60 60 59 59 58 58 58 59 58 57 57 56 56 55 55 56 56 56 56 54 51 40 40 39 39 39 38 44 59 57 58 57 58 58 58 57 55 53
61 61 60 61 60 60 59 58 57 57 57 58 58 58 58 58 57 57 56 55 55 55 55 54 52 40 40 40 39 39 39 57 58 58 56 57 58 58 60 59 57 55
62 61 60 60 60 59 58 57 57 57 58 59 58 58 57 57 57 56 57 56 55 54 54 54 54 45 40 40 39 38 44 56 57 58 58 57 57 58 60 59 59 57
62 62 60 60 60 58 57 57 58 58 58 59 58 57 57 57 58 57 57 56 55 53 54 54 54 47 40 40 39 39 43 54 56 55 56 57 58 58 59 59 56 51
62 61 61 60 59 58 58 57 58 58 59 59 59 59 58 59 59 58 57 57 56 55 51 53 54 50 42 40 39 39 44 53 56 55 55 55 57 57 59 58 57 54
61 61 60 60 59 58 59 58 59 59 58 59 59 61 60 60 59 58 57 57 57 56 55 54 53 54 50 39 40 40 39 48 56 53 52 53 56 56 56 57 56 56

ECMWFNIL_sfc_temp_099.txt.gz
Temp
69 68 68 68 68 67 66 66 66 65 66 66 65 65 65 65 66 65 65 65 65 65 65 65 66 65 66 66 66 67 66 64 65 65 65 64 64 64 63 63 63 63
67 67 68 67 67 66 66 67 66 65 65 65 65 65 65 65 65 65 65 65 66 65 65 65 65 66 65 66 65 65 65 64 63 65 65 64 64 64 63 63 63 64
67 67 66 65 65 66 66 66 65 65 64 64 65 65 65 65 65 65 65 65 65 65 65 65 64 65 65 65 65 65 64 63 62 64 64 64 64 63 63 64 63 63
65 66 66 66 66 65 65 65 65 65 65 64 64 65 65 65 65 65 65 65 65 64 65 64 64 64 65 65 65 64 64 64 64 64 64 64 64 64 63 63 63 63
64 65 66 66 65 65 65 64 64 64 64 64 65 65 65 65 65 65 65 64 65 65 64 64 64 64 64 64 64 63 63 63 64 64 64 63 64 63 63 63 62 62
66 67 66 65 65 65 64 64 64 64 64 64 64 65 65 65 65 65 65 65 65 65 64 64 64 64 64 64 63 63 63 62 63 64 63 63 63 64 63 62 62 62
64 64 64 65 64 64 64 63 64 64 64 64 65 64 65 64 64 65 66 65 65 65 65 64 64 62 63 63 63 62 63 62 63 63 62 62 62 62 63 62 62 62
63 64 65 64 63 64 63 64 64 64 64 65 63 64 65 65 65 65 66 65 65 65 64 64 63 63 63 63 62 61 62 62 62 62 61 62 61 61 61 61 61 61
64 64 64 63 63 63 63 63 63 64 65 64 64 64 65 65 65 65 65 65 65 64 64 63 62 62 62 62 61 61 62 61 62 61 61 60 60 60 61 61 60 60
63 63 63 63 62 62 62 63 64 64 65 64 65 65 64 64 65 65 64 64 63 64 63 62 61 61 61 61 61 61 61 61 62 61 61 61 61 61 61 61 60 59
62 63 62 62 62 62 62 63 63 64 65 65 64 64 65 64 64 65 64 63 62 62 62 61 60 60 59 59 60 60 61 61 61 62 61 61 61 61 60 60 60 59
62 62 62 62 62 62 62 63 64 64 64 64 65 64 64 64 63 64 64 63 63 62 61 60 59 58 57 57 58 59 60 60 61 61 61 62 61 61 61 61 59 60
62 62 62 62 62 62 63 64 64 64 64 64 65 64 64 63 64 63 63 63 62 61 59 58 57 56 55 55 56 58 59 61 61 61 61 61 61 61 61 61 60 60
62 62 63 63 63 63 63 63 63 64 63 64 64 63 63 64 63 63 62 63 61 60 58 57 56 55 53 53 54 55 57 61 61 60 60 61 60 61 61 60 60 60
62 63 63 63 64 63 63 63 63 63 64 64 63 62 62 64 64 63 63 62 61 59 58 56 54 52 50 49 50 53 55 60 60 61 60 60 60 60 60 60 60 59
63 63 64 63 63 63 63 63 63 62 62 61 62 62 62 62 62 62 63 61 60 59 57 55 53 51 45 42 42 48 52 57 60 60 60 60 59 58 59 59 59 59
64 64 64 63 63 63 62 63 62 61 61 61 61 61 61 61 61 61 60 60 59 57 56 54 52 49 41 40 40 40 48 53 58 59 60 59 59 58 58 58 59 59
64 64 63 62 63 63 63 63 62 61 60 60 60 60 60 60 59 60 60 60 58 57 55 53 52 43 40 40 41 40 42 48 58 59 59 60 59 59 60 59 58 57
64 64 63 63 62 62 61 60 60 60 61 60 59 60 60 59 59 59 59 59 59 57 54 53 53 43 40 40 41 40 40 44 60 59 59 59 59 59 60 59 59 58
64 63 62 61 61 61 62 62 61 61 61 61 61 60 59 58 58 58 58 58 58 57 55 53 52 44 40 40 41 39 40 42 60 59 59 60 59 59 60 59 58 56
63 63 62 63 63 63 62 62 61 61 61 61 61 60 59 59 58 57 57 58 58 58 55 53 50 41 41 40 40 40 40 44 60 60 60 60 60 60 60 59 57 56
64 63 63 63 62 62 61 61 60 60 60 61 61 61 60 60 59 59 57 57 58 58 56 54 51 40 40 40 40 40 41 57 59 59 59 60 60 59 61 61 60 58
64 63 62 62 62 61 61 60 60 60 61 62 60 60 60 59 59 58 59 57 57 57 56 55 53 45 40 40 40 40 45 57 58 58 58 58 59 59 60 61 59 58
65 64 63 62 62 61 60 60 60 61 61 62 61 60 60 60 61 60 59 58 56 55 56 55 53 47 40 41 41 40 45 55 58 56 56 57 59 60 60 61 59 51
65 64 63 62 62 61 60 60 60 61 61 62 62 62 61 62 62 60 59 59 57 56 53 55 55 50 42 41 41 41 46 54 57 56 54 54 57 58 59 60 59 56
64 63 63 62 62 61 61 61 62 61 61 62 63 64 63 62 62 60 59 59 59 58 56 56 56 54 49 41 41 42 41 50 56 53 52 53 55 58 57 58 58 58

ECMWFNIL_sfc_temp_102.txt.gz
Temp
67 67 66 66 65 65 65 64 64 63 62 62 61 60 60 61 62 62 62 62 62 61 61 61 62 61 62 61 61 62 60 60 60 60 60 59 58 58 58 59 58 58
66 66 65 65 64 64 64 64 63 62 61 61 61 61 61 61 61 62 61 61 61 61 61 61 61 62 61 61 60 59 59 59 59 62 59 59 58 58 58 58 58 58
65 64 64 63 63 63 63 63 62 61 61 61 61 61 62 62 61 61 61 61 60 60 60 60 61 61 61 61 60 59 59 58 58 59 59 59 58 58 58 58 58 58
64 64 63 63 63 63 63 62 62 61 61 61 61 62 62 62 61 61 61 62 60 60 60 60 60 60 61 60 60 58 59 59 59 59 58 58 58 58 57 58 58 58
63 63 64 64 63 63 62 61 61 61 61 61 61 61 62 61 61 61 60 60 60 60 60 60 60 59 60 59 59 57 58 57 59 59 58 57 58 58 58 58 57 57
63 64 64 63 62 62 61 61 61 61 61 60 60 61 61 62 61 62 61 60 61 61 60 60 60 59 59 59 58 58 57 57 58 58 58 57 57 58 59 58 57 57
62 62 62 62 62 62 61 61 61 61 61 61 62 60 61 61 61 62 62 61 61 60 60 59 59 58 58 58 58 58 57 58 58 59 58 57 57 57 58 57 57 57
61 62 62 62 61 61 60 61 61 60 61 61 60 61 62 62 62 61 62 61 60 60 59 59 59 58 58 57 57 57 57 59 58 58 57 57 56 56 56 57 56 56
61 61 61 61 60 60 60 61 61 61 62 60 60 60 62 61 61 61 61 61 60 58 58 57 57 57 56 57 56 57 57 57 58 57 56 56 56 56 57 56 55 55
61 61 60 60 59 60 60 60 61 61 62 61 61 61 61 61 61 61 60 59 58 58 57 56 55 55 55 56 56 56 57 57 57 57 57 57 57 56 56 56 55 54
60 60 59 59 59 59 59 60 61 61 61 62 61 60 61 61 61 61 59 58 56 56 55 54 54 53 53 54 55 56 57 57 57 57 57 57 56 56 57 55 55 54
59 59 59 59 59 59 60 60 60 61 61 61 62 61 60 60 59 60 59 57 57 55 54 54 53 52 51 51 53 54 56 57 56 57 57 57 57 56 56 56 54 54
59 59 59 59 59 59 60 61 61 60 61 61 61 61 60 59 59 59 58 57 56 54 53 52 51 51 49 49 51 52 52 56 56 56 56 56 56 56 56 55 55 54
59 59 60 60 60 60 60 60 60 60 60 60 60 59 60 60 59 58 57 57 55 54 52 52 50 49 48 47 48 49 51 52 56 55 56 55 55 55 55 54 55 54
59 60 60 60 61 60 60 59 60 59 60 60 59 59 59 60 60 59 57 56 55 53 52 51 49 48 45 44 44 46 48 51 53 56 55 55 54 55 55 55 54 54
60 60 60 60 60 59 59 59 59 58 58 58 58 59 59 59 59 58 57 55 53 53 51 50 48 47 44 42 43 43 45 50 51 54 55 55 54 54 55 54 55 54
60 60 60 60 59 59 58 59 59 58 57 57 57 57 57 58 58 57 56 54 53 51 50 49 48 46 42 40 41 41 44 47 49 53 55 55 54 54 53 54 54 54
60 60 60 59 59 59 59 59 58 58 57 57 56 56 57 57 57 57 55 54 52 51 50 49 48 43 40 41 41 41 42 44 49 54 54 54 54 54 54 53 52 52
61 60 60 59 59 59 58 58 58 57 57 56 56 56 56 56 56 56 55 54 52 51 49 49 48 43 41 41 41 40 41 43 49 55 54 54 54 54 54 52 51 51
61 60 59 59 58 58 58 59 58 57 57 57 56 56 55 55 55 55 55 54 52 51 49 49 47 43 41 41 41 41 41 42 51 54 54 54 55 54 54 53 52 50
60 59 58 58 59 59 58 58 57 56 57 56 56 56 55 54 54 53 54 54 53 52 50 48 47 41 41 41 41 41 41 45 54 55 55 54 54 54 54 54 52 52
60 59 59 59 59 59 58 57 57 56 56 56 56 55 55 55 54 54 53 54 54 52 50 48 47 41 41 41 42 41 43 51 53 53 53 53 54 54 55 54 53 52
60 60 59 59 59 58 57 56 56 56 56 57 55 55 54 54 53 53 53 53 53 53 50 48 47 43 40 42 42 41 44 50 52 52 52 52 52 53 54 53 52 52
61 61 59 59 58 57 57 56 57 57 57 57 55 55 55 55 55 54 53 53 52 52 52 49 47 44 41 41 42 41 44 48 51 50 50 50 51 52 54 53 51 53
61 61 60 59 58 57 57 56 56 56 57 57 56 57 56 56 56 54 53 53 52 52 54 51 49 46 42 41 42 41 44 48 51 50 48 48 49 50 53 53 52 51
60 60 59 58 58 57 57 57 57 57 57 57 57 58 57 57 56 55 54 53 53 52 53 53 51 49 47 42 42 42 41 46 50 48 47 47 48 50 51 51 51 52

ECMWFNIL_sfc_temp_105.txt.gz
Temp
61 61 60 59 59 59 58 58 57 57 55 55 53 54 53 54 55 55 55 56 56 55 55 55 55 55 56 55 54 55 55 54 54 54 54 53 53 53 53 53 52 52
60 60 60 59 59 59 58 58 57 56 55 54 54 53 54 54 55 55 55 55 55 55 55 55 55 55 54 55 53 53 53 53 53 56 54 53 52 53 52 51 52 52
59 59 59 58 57 57 57 57 56 55 54 54 54 54 56 54 54 54 55 54 54 54 54 54 54 54 54 54 54 53 53 52 52 53 53 53 52 52 52 51 51 52
59 59 59 58 58 57 56 56 55 55 54 55 54 55 55 56 54 55 55 56 54 54 54 54 53 53 53 53 53 52 52 52 52 52 52 53 53 53 52 52 52 52
58 59 59 59 57 57 56 55 54 54 54 53 54 54 55 53 54 55 54 53 53 53 53 53 53 53 53 52 52 51 52 51 52 52 51 50 52 53 53 52 51 50
58 58 59 58 57 56 55 54 55 54 54 54 54 55 54 55 54 54 54 54 53 53 52 52 52 52 52 51 50 51 51 52 51 50 51 50 51 52 53 51 50 49
57 56 55 56 55 55 54 54 54 55 53 53 54 54 54 54 54 54 54 53 53 53 51 51 51 51 51 51 50 49 50 50 50 50 50 50 51 51 51 51 50 49
56 56 55 55 54 54 54 54 54 53 53 54 53 54 54 54 54 53 53 52 51 51 50 50 50 50 50 50 50 49 49 53 51 50 50 49 50 50 50 50 49 48
55 55 54 54 53 53 53 54 53 54 55 53 53 53 54 54 53 53 52 51 50 49 49 48 48 48 48 49 49 49 48 49 50 50 49 49 49 49 49 49 47 47
54 54 54 53 52 52 52 52 52 52 53 53 53 54 54 54 53 52 51 50 49 48 47 47 47 47 47 47 48 48 48 49 48 49 49 49 49 49 48 48 46 45
53 53 53 52 52 52 52 53 53 53 54 53 52 52 53 53 53 52 50 49 48 47 46 46 45 45 45 45 46 47 47 48 48 48 48 48 49 49 51 47 46 45
52 52 52 52 52 52 52 53 53 53 53 53 54 53 52 52 51 51 50 48 47 47 46 45 45 44 44 44 45 45 46 47 48 49 49 48 48 48 48 47 46 46
52 52 52 52 52 52 52 52 52 52 52 53 54 53 52 51 50 49 49 48 47 46 45 44 44 43 42 41 42 44 44 46 47 47 48 48 48 48 48 47 47 47
52 52 52 52 52 52 52 52 52 52 52 52 53 52 52 51 50 49 48 48 46 45 45 44 43 42 41 40 41 42 43 45 46 47 48 47 47 48 48 47 48 48
52 52 52 53 53 52 52 52 52 52 52 52 52 52 52 51 50 49 48 46 46 45 44 43 42 42 42 40 40 41 41 44 45 46 47 47 48 47 47 48 48 47
53 52 52 52 52 51 51 51 51 50 51 51 51 52 51 51 49 49 47 46 45 43 42 43 42 42 43 43 43 41 40 43 44 45 46 46 47 46 46 47 46 46
52 52 52 51 51 51 50 51 50 50 50 50 50 50 50 50 49 47 45 45 44 42 41 43 42 43 42 40 41 42 43 41 42 44 46 46 47 45 45 46 45 46
52 52 52 51 51 51 51 50 50 50 49 48 48 49 50 49 47 46 45 43 43 41 40 42 41 43 40 41 41 41 43 42 42 44 47 46 47 45 46 45 45 45
52 52 51 50 50 50 50 50 49 49 48 48 48 48 49 48 47 46 44 43 42 40 40 40 40 42 41 42 41 41 42 44 44 45 45 47 45 47 45 45 46 46
53 51 50 50 50 50 50 49 49 49 48 48 48 48 47 47 46 45 45 43 42 40 40 40 40 42 41 41 41 41 42 44 45 47 46 47 47 47 45 44 46 44
51 51 51 51 51 49 49 49 49 48 49 48 47 46 45 46 46 45 45 44 42 41 41 41 42 41 41 41 41 42 43 44 45 47 46 46 47 46 46 46 45 45
51 51 51 51 49 49 50 49 47 47 47 47 47 45 45 44 45 46 44 43 42 41 41 40 40 41 41 41 41 41 43 45 44 45 44 45 45 46 47 45 44 43
52 51 50 49 49 49 48 47 48 47 47 48 46 45 44 43 43 44 44 43 42 42 40 38 39 41 40 41 41 41 42 42 43 44 43 43 43 44 46 46 45 44
53 51 50 50 49 49 48 48 48 48 48 49 46 45 45 44 44 44 44 44 42 41 41 39 40 42 41 41 41 42 43 41 41 42 41 42 42 44 45 44 45 54
52 51 51 50 49 49 49 48 48 49 49 48 47 47 46 46 46 44 42 42 42 42 48 42 39 43 42 41 41 41 43 41 42 41 41 40 41 42 44 44 44 47
52 52 50 50 49 48 48 48 48 49 48 48 48 48 47 46 46 45 44 43 43 44 45 42 40 41 42 41 42 41 42 42 41 39 39 39 39 43 42 43 43 43

ECMWFNIL_sfc_temp_108.txt.gz
Temp
58 58 57 57 56 56 56 55 55 54 53 53 53 52 52 53 53 52 52 53 53 52 52 52 52 52 53 52 52 52 52 52 51 51 51 51 50 50 49 48 48 48
57 58 58 57 56 56 55 55 55 54 53 53 52 52 53 52 52 52 52 52 52 51 51 52 52 52 51 51 51 51 50 51 51 53 51 50 50 49 48 48 47 47
56 56 56 55 55 54 54 55 55 54 53 52 52 53 53 53 52 51 51 51 51 51 51 51 51 51 51 51 51 51 50 50 50 50 51 50 49 48 48 48 47 47
55 56 55 55 55 55 55 54 53 53 52 53 53 54 53 53 51 51 51 53 50 50 50 50 49 50 50 51 51 50 50 49 49 49 49 50 50 48 47 48 47 46
55 55 55 55 55 55 54 53 52 52 52 51 51 52 52 51 51 50 50 49 49 49 49 49 49 49 49 49 49 49 50 49 49 49 49 48 48 48 48 47 46 45
55 55 55 55 54 54 53 52 52 51 51 51 51 52 51 51 50 49 49 48 48 48 48 48 48 48 48 48 48 48 48 48 48 49 49 47 47 48 48 47 45 44
54 54 53 54 53 53 52 51 52 52 51 51 51 50 50 50 49 48 48 48 47 48 47 47 47 47 47 47 47 47 48 48 48 49 48 46 47 46 46 46 45 44
53 53 53 53 52 52 52 51 50 50 51 52 50 50 50 49 48 48 47 47 46 46 45 45 46 46 46 46 46 46 47 50 48 48 47 46 45 44 44 46 43 43
53 52 52 52 51 51 51 51 50 51 52 51 50 49 49 48 47 47 46 46 45 44 44 44 44 44 44 45 45 45 45 45 47 47 47 46 45 43 43 43 43 44
52 52 52 52 51 50 50 50 50 50 51 50 49 49 48 48 47 46 45 44 44 43 43 43 43 43 43 44 44 44 44 44 45 46 46 45 45 43 43 43 43 43
51 51 51 50 50 50 49 50 50 50 51 50 48 48 47 47 47 46 44 44 43 42 42 42 42 42 42 42 43 43 43 44 44 45 44 45 44 45 49 43 44 42
50 50 50 49 49 49 49 50 50 50 50 49 49 47 46 46 45 45 45 43 43 42 42 41 41 41 41 41 41 42 43 44 43 44 45 45 44 44 44 44 43 42
50 50 50 49 50 49 50 50 50 50 50 48 49 47 46 45 44 44 44 43 42 42 41 41 40 40 39 39 40 41 41 43 43 42 43 44 44 44 44 43 43 42
50 49 49 49 48 49 49 49 49 49 49 49 48 46 45 45 44 43 43 43 42 42 41 41 40 40 39 39 39 39 40 41 41 43 42 43 43 44 45 44 43 43
49 49 49 49 50 49 49 49 49 48 49 48 48 47 46 45 44 43 43 42 41 40 40 41 40 41 41 39 39 40 39 40 41 42 42 43 43 43 44 44 44 43
49 49 49 49 49 49 48 48 48 49 48 47 46 46 45 44 43 43 42 41 40 40 40 40 40 41 44 43 43 40 39 40 41 41 42 43 44 43 44 43 44 42
49 48 49 49 48 48 47 48 48 48 47 46 45 45 44 45 43 42 41 40 40 39 39 40 40 42 42 40 40 42 42 39 41 42 42 41 42 42 42 44 44 43
48 48 48 48 48 48 48 48 48 48 46 45 45 44 44 43 42 41 40 39 39 39 38 39 39 43 40 41 41 42 45 42 41 43 44 41 41 41 42 42 42 43
48 48 48 47 47 47 48 48 47 47 45 45 44 44 43 42 40 40 39 39 39 39 38 38 38 42 40 41 41 41 42 44 42 42 43 41 41 41 39 40 43 42
49 48 47 47 47 47 47 47 46 46 45 45 45 44 43 41 40 40 39 38 39 39 38 38 38 42 40 41 42 41 41 42 40 41 41 41 41 41 40 40 40 40
48 48 47 47 47 47 46 46 45 45 45 45 44 43 42 41 40 38 39 39 38 37 38 38 39 41 40 41 41 42 41 42 39 41 41 40 40 40 41 40 40 40
48 47 47 47 46 46 46 45 45 45 44 44 44 42 42 41 39 40 39 38 37 37 37 35 38 40 40 40 41 41 42 42 39 39 38 39 40 40 41 41 40 39
49 48 47 47 46 46 45 44 44 43 43 44 43 42 41 41 40 40 40 38 38 37 37 36 37 40 40 41 40 40 40 38 38 38 38 38 38 39 40 40 40 42
49 49 47 47 46 46 45 44 43 43 43 45 43 42 42 42 41 41 39 39 39 37 39 38 38 42 41 41 40 41 41 37 38 38 36 37 37 38 39 38 41 50
49 49 47 47 46 45 45 45 44 44 44 44 43 43 43 42 43 41 39 37 38 38 47 40 37 42 42 40 41 42 40 37 37 36 36 35 36 38 39 40 39 42
49 48 47 47 46 45 45 46 46 45 44 44 43 44 43 42 42 41 40 40 39 40 43 39 38 39 40 41 41 41 42 37 37 37 36 35 35 38 39 38 37 39

ECMWFNIL_sfc_temp_111.txt.gz
Temp
58 57 56 55 54 54 53 52 52 51 50 50 50 50 50 50 51 51 51 51 51 50 51 50 51 51 51 50 51 51 50 49 49 48 48 47 46 46 45 44 44 44
56 57 56 55 54 54 53 53 52 51 50 50 50 49 50 50 50 51 50 50 50 49 50 50 50 50 50 50 50 49 49 49 48 50 47 46 46 45 44 43 43 43
56 55 54 54 53 52 52 52 52 51 50 50 50 50 50 50 50 50 49 49 49 49 49 49 49 49 49 49 49 49 48 47 47 47 47 45 45 44 44 43 43 43
55 55 54 54 53 53 52 52 51 51 50 50 49 50 50 51 49 49 49 50 48 48 48 48 48 48 48 48 48 48 47 47 47 47 46 46 46 45 44 44 44 44
54 54 54 54 53 53 52 52 51 50 49 49 49 50 50 49 48 48 48 47 47 47 47 47 47 47 47 47 48 47 47 46 46 46 45 44 44 45 44 45 43 43
54 54 54 53 53 52 52 51 50 49 49 49 48 49 48 48 47 47 47 46 46 47 46 46 46 46 46 47 47 47 46 46 46 45 45 44 42 43 45 43 42 42
52 53 52 52 52 52 51 49 50 50 49 48 48 47 47 47 47 46 46 46 46 46 45 45 45 45 45 46 46 46 46 46 45 45 44 42 44 42 43 43 43 41
52 52 52 52 51 50 50 49 49 48 48 48 47 46 47 46 46 45 45 45 45 44 44 44 44 44 44 45 46 45 45 47 45 44 42 41 42 41 41 43 41 40
52 51 51 51 50 49 49 49 48 48 48 47 46 45 46 45 44 44 44 44 43 43 43 43 43 42 42 43 44 45 44 44 45 44 43 42 42 41 41 40 40 40
51 51 51 50 49 48 48 48 48 47 48 46 45 45 44 44 44 43 43 43 43 42 42 41 42 42 42 42 43 44 44 44 43 43 42 42 42 41 41 40 39 39
50 50 50 49 48 48 47 48 47 47 47 46 45 44 44 43 43 43 42 42 42 41 41 40 40 41 42 41 41 42 43 43 42 42 42 42 42 42 45 40 41 39
50 50 49 48 48 47 47 47 47 46 46 45 45 43 43 42 42 42 42 40 40 40 40 40 39 40 40 40 40 41 42 41 41 41 42 41 41 42 41 40 40 39
49 49 49 48 48 47 47 47 46 46 45 44 45 43 42 42 41 41 41 40 40 40 40 40 39 39 39 39 39 40 40 41 41 41 41 41 41 41 41 40 40 39
49 48 48 47 47 48 47 46 46 45 45 44 44 42 42 41 41 41 41 40 39 40 40 40 39 39 37 37 38 38 40 40 40 41 41 41 41 40 41 41 40 40
48 48 47 48 48 47 47 46 45 45 44 44 44 43 43 41 40 40 40 39 38 38 38 39 40 40 39 38 38 37 37 40 40 40 41 42 41 41 40 40 41 40
48 48 47 47 47 47 46 45 45 44 44 43 42 42 41 41 40 40 39 39 39 38 38 40 40 40 43 44 45 39 38 40 41 40 40 40 42 41 42 41 41 39
47 47 47 47 47 46 45 45 44 44 43 42 41 41 40 41 40 38 38 38 38 38 38 39 39 41 42 40 42 44 41 41 41 40 39 39 39 41 41 42 42 41
47 47 47 46 46 46 45 45 44 43 42 41 40 40 40 39 38 38 37 37 38 37 37 38 38 43 40 42 42 43 45 42 41 41 40 38 37 37 39 39 38 38
47 47 46 45 46 46 45 44 43 42 41 41 39 40 38 38 37 37 36 36 37 38 37 37 37 42 41 42 41 41 42 42 41 40 41 38 37 37 37 38 38 40
47 47 46 45 45 45 45 44 43 42 41 41 40 39 38 37 36 37 36 36 36 37 36 36 36 42 41 41 41 40 41 41 38 39 39 38 38 37 38 37 38 39
48 47 45 45 45 45 44 43 42 41 41 41 40 39 38 38 37 36 37 37 36 35 37 36 38 41 40 40 40 40 40 40 38 40 39 38 37 37 38 38 38 38
48 46 45 45 45 44 44 43 42 42 40 40 39 37 37 37 36 37 36 35 35 35 37 34 36 40 40 40 40 40 41 40 36 37 37 37 37 37 38 38 38 39
48 47 45 45 44 44 43 42 41 40 40 40 39 38 37 37 37 36 35 34 35 35 36 33 35 39 40 40 39 39 39 36 35 37 36 35 36 37 36 36 37 41
48 47 46 45 44 44 43 42 42 41 40 42 40 39 38 38 38 37 35 35 34 34 36 36 35 40 40 40 40 40 39 35 35 36 33 34 35 36 35 35 38 48
48 48 46 45 45 43 43 42 42 42 41 41 41 41 40 39 40 37 35 35 35 36 46 37 35 40 41 39 40 40 38 33 35 35 35 32 32 35 35 37 36 40
49 48 46 46 44 43 43 43 42 42 41 41 41 41 40 38 40 37 35 36 37 38 39 35 35 37 39 40 40 40 40 34 34 35 35 34 33 37 38 36 35 36

ECMWFNIL_sfc_temp_114.txt.gz
Temp
58 58 57 56 55 54 53 52 52 51 50 50 50 50 50 51 51 50 51 51 51 51 51 51 51 51 51 50 50 50 49 48 48 47 47 47 46 46 45 45 45 45
58 58 57 56 55 54 53 52 52 51 50 50 50 50 50 50 50 51 50 50 51 50 51 51 51 51 50 50 49 49 48 48 48 49 46 46 46 46 45 44 45 45
58 57 56 55 54 52 52 52 51 51 50 49 50 50 50 50 49 50 50 50 50 49 50 50 50 50 50 49 49 49 48 47 46 47 47 46 46 45 45 45 45 44
57 57 56 54 53 52 52 51 51 50 50 50 49 50 50 51 50 49 50 51 49 49 49 49 49 49 49 49 48 48 47 47 47 47 47 47 47 46 45 46 45 44
56 55 54 53 53 53 52 51 50 50 50 49 49 50 50 49 48 48 48 48 48 48 48 48 49 49 49 48 48 47 47 46 46 47 46 45 46 46 46 45 44 43
55 55 54 54 53 52 51 51 50 50 49 49 48 49 48 48 48 48 48 47 47 48 48 48 48 48 48 48 47 47 46 46 46 46 46 45 45 45 45 44 44 43
53 53 53 53 53 52 51 50 50 50 49 49 49 47 48 47 48 47 47 47 47 48 48 47 47 47 48 47 47 46 46 46 46 46 45 45 45 44 44 44 44 43
53 53 52 52 51 50 50 49 49 48 48 48 47 47 47 47 47 47 46 46 46 46 46 47 47 47 47 47 47 46 46 46 45 45 44 44 44 44 44 44 43 43
52 51 51 51 50 49 49 48 48 48 48 47 46 46 46 46 46 46 46 46 45 45 46 46 46 46 47 47 46 46 46 46 45 45 45 44 44 44 44 43 43 43
51 51 50 50 49 49 48 48 48 47 48 46 45 45 45 45 45 45 45 45 45 44 45 45 45 46 46 47 47 46 46 45 45 45 45 45 44 44 43 44 43 43
50 50 49 49 48 48 47 47 47 46 47 46 45 44 44 44 45 45 44 45 44 44 44 44 45 45 45 45 45 45 45 45 44 44 44 44 44 44 46 44 45 44
50 49 49 48 48 47 47 46 46 46 45 45 45 44 43 43 44 44 44 43 43 43 43 43 44 44 45 45 44 44 44 44 45 45 44 45 45 45 44 44 44 44
50 49 48 48 48 47 46 46 46 45 45 44 45 44 43 43 43 43 43 42 42 42 42 43 42 43 43 43 43 43 44 45 44 44 44 44 44 44 44 43 43 43
49 48 48 48 47 47 46 45 45 44 44 44 44 43 42 42 42 42 42 42 42 42 42 42 42 42 41 41 42 43 44 44 44 45 45 44 44 43 44 43 43 43
48 48 48 48 47 46 45 44 44 44 44 44 44 43 42 41 41 41 41 41 41 41 42 42 42 42 42 42 42 41 42 44 44 45 44 44 43 43 42 43 44 43
48 48 48 47 46 45 45 44 44 43 43 42 42 41 41 41 41 41 41 41 41 41 41 42 42 43 46 44 44 43 42 43 43 44 44 44 45 44 44 44 44 41
48 47 47 46 46 45 44 44 43 43 42 42 41 41 41 42 41 40 40 40 41 41 41 41 42 44 43 41 41 43 43 43 44 44 44 44 44 44 44 46 43 43
47 47 47 46 45 44 44 44 43 42 42 41 40 40 41 40 40 40 39 40 40 40 40 41 42 44 40 41 41 42 44 43 43 44 43 43 43 42 43 43 43 43
47 47 46 45 45 44 44 43 42 42 41 41 40 40 40 39 39 39 39 39 40 41 41 42 42 42 40 41 41 41 42 43 42 42 43 42 41 41 41 41 42 44
47 47 46 45 45 44 43 42 42 41 41 41 41 40 39 38 38 39 39 39 40 40 40 40 41 42 40 41 41 40 40 41 41 42 41 41 42 41 42 42 43 44
47 46 45 45 44 44 43 42 41 40 40 40 40 39 39 38 38 38 39 40 40 39 40 40 41 41 40 40 40 40 40 41 41 42 41 41 41 41 42 42 42 41
48 47 46 45 44 44 43 42 41 41 40 40 39 38 38 38 38 39 39 38 38 39 40 38 39 39 39 40 40 39 41 42 41 41 41 41 41 41 41 42 41 42
48 47 46 45 44 43 42 41 40 39 39 40 38 38 38 38 38 39 39 38 39 39 39 38 39 40 39 39 39 39 40 40 40 41 41 41 41 40 40 40 41 45
48 47 46 45 45 44 42 42 41 41 40 41 40 39 39 39 39 38 37 39 39 38 40 39 38 40 39 39 39 39 40 39 40 40 39 40 40 40 39 39 42 48
48 47 46 46 46 44 43 42 41 41 41 41 40 40 40 39 40 38 37 37 38 39 44 40 38 41 40 39 39 39 39 38 39 40 40 38 37 41 39 38 39 41
48 47 46 45 45 44 44 43 43 42 41 40 40 41 40 39 40 39 38 38 39 41 42 39 39 39 41 39 39 39 38 38 38 41 40 39 39 42 41 40 39 39

ECMWFNIL_sfc_temp_120.txt.gz
Temp
70 70 69 70 71 70 69 68 68 68 68 68 68 68 68 68 68 68 67 67 66 66 66 66 66 65 66 66 66 66 65 63 63 63 63 63 62 62 61 62 62 63
70 70 71 70 68 67 67 67 68 69 69 68 69 69 68 67 67 67 66 66 67 66 66 66 66 66 66 66 65 64 64 63 62 64 62 62 62 61 60 61 61 62
69 68 69 67 66 66 66 68 69 69 69 69 68 68 67 67 67 67 67 67 66 66 65 66 65 65 65 65 65 64 63 63 62 63 63 62 62 62 61 62 61 61
68 68 68 67 66 67 67 67 68 69 68 67 67 67 67 67 67 67 66 66 66 65 65 65 65 65 66 65 64 64 63 63 63 63 62 63 62 62 61 62 62 62
68 67 67 67 68 67 66 67 68 68 68 68 67 67 67 67 66 67 66 66 66 65 65 65 65 64 64 64 65 63 63 63 63 63 63 61 62 62 62 62 61 60
68 67 67 68 67 66 65 67 68 68 68 67 66 68 67 67 67 67 66 66 66 65 65 65 65 65 65 64 64 63 63 63 63 63 63 62 62 63 63 62 61 61
68 66 65 67 66 66 65 66 68 68 68 68 68 67 67 67 67 67 68 66 66 66 66 65 64 64 64 64 64 63 63 63 64 64 63 62 62 61 62 62 62 61
66 66 66 67 65 64 65 67 68 68 68 68 67 67 68 68 68 67 67 67 67 67 66 66 65 65 65 65 64 62 62 63 63 64 62 62 61 61 61 61 61 61
65 67 67 65 64 64 65 67 67 68 68 67 67 67 68 68 68 67 67 68 67 66 67 66 66 65 65 64 63 63 63 63 63 63 62 61 61 61 62 62 61 60
64 66 66 64 63 65 65 67 67 67 68 67 68 68 68 68 68 68 68 67 66 67 66 66 65 64 65 65 64 64 64 63 63 63 62 62 62 62 62 62 61 60
63 65 65 63 63 65 65 67 67 67 68 68 67 67 68 67 67 68 67 67 65 66 66 66 65 65 65 65 64 64 64 63 64 64 62 63 62 61 60 62 61 60
64 63 63 63 64 64 65 66 67 67 67 67 68 67 67 67 67 68 68 68 68 68 67 67 67 66 66 65 65 64 64 63 63 63 63 63 62 62 62 62 61 61
63 62 62 63 64 65 65 66 67 67 67 67 68 67 66 66 67 67 67 67 68 67 66 66 66 66 65 65 65 65 64 63 62 62 62 62 63 62 62 62 62 61
62 63 64 64 65 66 66 67 67 67 67 67 67 66 66 67 67 66 67 68 68 67 67 67 66 66 66 66 66 65 63 63 63 62 62 62 61 62 61 62 62 62
63 65 65 66 66 67 67 67 66 67 67 67 66 66 66 68 67 67 66 67 67 66 66 66 65 65 65 64 64 64 64 63 63 63 62 61 61 61 62 62 62 61
65 65 66 66 66 67 67 66 66 66 66 66 66 66 67 67 67 67 67 66 66 66 66 64 64 65 60 54 57 64 64 64 62 62 62 62 61 61 61 61 61 61
65 65 66 65 66 67 66 66 66 65 65 65 65 65 65 66 65 65 65 65 66 65 64 63 63 64 48 48 48 52 62 63 63 62 63 62 62 61 60 61 62 62
64 65 64 64 65 66 66 66 64 65 65 65 64 64 64 64 63 64 65 65 64 65 63 63 64 51 45 45 46 47 51 62 63 62 62 62 62 62 62 62 61 61
64 64 64 63 64 65 65 64 63 64 65 64 63 63 63 62 63 63 63 64 64 64 63 63 63 45 44 43 44 44 44 52 65 63 62 62 62 62 63 62 62 61
63 62 61 60 58 59 60 60 61 64 64 64 63 62 62 62 62 62 63 63 63 64 63 63 63 46 43 42 43 41 44 46 66 62 63 63 62 62 61 61 61 62
61 61 59 56 55 55 57 57 58 62 63 63 62 61 61 61 61 61 62 62 63 63 63 62 62 42 42 41 41 41 42 44 64 62 63 63 62 62 62 61 61 61
59 57 54 53 53 53 55 56 59 60 60 61 61 61 61 61 61 62 61 61 62 63 62 61 57 40 41 41 40 41 40 57 63 62 62 62 62 62 62 62 62 61
60 58 57 56 52 52 54 56 57 57 58 59 58 58 58 58 59 60 61 61 61 62 61 61 58 44 40 40 41 39 46 61 62 62 62 61 61 61 62 62 61 62
60 59 58 57 53 53 54 53 52 54 56 58 57 57 57 58 59 59 60 61 61 61 62 61 60 47 39 40 40 39 49 61 63 62 62 61 61 61 63 62 60 51
61 60 56 55 55 55 55 54 55 55 55 56 56 57 57 58 59 59 59 60 61 61 57 59 60 49 39 40 40 40 49 62 63 64 61 61 61 60 62 62 60 56
60 60 59 58 57 57 56 53 51 52 52 54 55 56 56 57 57 58 58 59 60 61 60 60 60 56 47 39 40 40 42 59 64 63 61 60 61 61 60 62 61 60